Wetterdaten: Samstag, 29.10.2022
Datum Zeit Temp. 2m Temp +5 cm Feuchte A. Luftdruck Regen Wind Richtung Richtung Sonnenschein UV Solar Taupunkt Windchill Windben
29.10.2022 00:00 12,1 C 9,4 C 90 % 1023,7 hPa 0,0 l/m 0,1 km/h (0 Bft) S-SO 157 0 min 0,0 UV-I 0 W/m 10,5 C 12,1 C 1,6 km/h (1 Bft)
29.10.2022 00:03 12,2 C 9,4 C 90 % 1023,7 hPa 0,0 l/m 0,0 km/h (0 Bft) S-SO 157 0 min 0,0 UV-I 0 W/m 10,6 C 12,2 C 0,0 km/h (0 Bft)
29.10.2022 00:06 12,2 C 10,0 C 90 % 1023,7 hPa 0,0 l/m 0,0 km/h (0 Bft) S-SO 157 0 min 0,0 UV-I 0 W/m 10,6 C 12,2 C 0,0 km/h (0 Bft)
29.10.2022 00:09 12,2 C 9,4 C 90 % 1023,8 hPa 0,0 l/m 1,3 km/h (1 Bft) S-SO 157 0 min 0,0 UV-I 0 W/m 10,6 C 12,2 C 3,2 km/h (1 Bft)
29.10.2022 00:12 12,2 C 10,0 C 90 % 1023,8 hPa 0,0 l/m 1,5 km/h (1 Bft) S-SO 157 0 min 0,0 UV-I 0 W/m 10,6 C 12,2 C 3,2 km/h (1 Bft)
29.10.2022 00:15 12,1 C 9,4 C 90 % 1023,8 hPa 0,0 l/m 2,0 km/h (1 Bft) S-SO 157 0 min 0,0 UV-I 0 W/m 10,5 C 12,1 C 3,2 km/h (1 Bft)
29.10.2022 00:18 12,1 C 9,4 C 90 % 1023,8 hPa 0,0 l/m 2,0 km/h (1 Bft) S-SO 157 0 min 0,0 UV-I 0 W/m 10,5 C 12,1 C 3,2 km/h (1 Bft)
29.10.2022 00:21 12,1 C 10,0 C 90 % 1023,8 hPa 0,0 l/m 1,8 km/h (1 Bft) S-SO 157 0 min 0,0 UV-I 0 W/m 10,5 C 12,1 C 3,2 km/h (1 Bft)
29.10.2022 00:24 12,1 C 9,4 C 91 % 1023,8 hPa 0,0 l/m 1,1 km/h (1 Bft) S-SO 157 0 min 0,0 UV-I 0 W/m 10,7 C 12,1 C 3,2 km/h (1 Bft)
29.10.2022 00:27 12,2 C 9,4 C 91 % 1023,8 hPa 0,0 l/m 0,4 km/h (0 Bft) S-SO 157 0 min 0,0 UV-I 0 W/m 10,8 C 12,2 C 3,2 km/h (1 Bft)
29.10.2022 00:30 12,2 C 9,4 C 90 % 1023,8 hPa 0,0 l/m 0,0 km/h (0 Bft) S-SO 157 0 min 0,0 UV-I 0 W/m 10,6 C 12,2 C 0,0 km/h (0 Bft)
29.10.2022 00:33 12,1 C 9,4 C 90 % 1023,8 hPa 0,0 l/m 0,0 km/h (0 Bft) S-SO 157 0 min 0,0 UV-I 0 W/m 10,5 C 12,1 C 0,0 km/h (0 Bft)
29.10.2022 00:36 12,1 C 9,4 C 91 % 1023,9 hPa 0,0 l/m 0,0 km/h (0 Bft) S-SO 157 0 min 0,0 UV-I 0 W/m 10,7 C 12,1 C 0,0 km/h (0 Bft)
29.10.2022 00:39 12,1 C 9,4 C 90 % 1023,8 hPa 0,0 l/m 0,0 km/h (0 Bft) S-SO 157 0 min 0,0 UV-I 0 W/m 10,5 C 12,1 C 0,0 km/h (0 Bft)
29.10.2022 00:42 11,9 C 9,4 C 90 % 1023,7 hPa 0,0 l/m 0,0 km/h (0 Bft) S-SO 157 0 min 0,0 UV-I 0 W/m 10,3 C 11,9 C 0,0 km/h (0 Bft)
29.10.2022 00:45 11,9 C 8,9 C 90 % 1023,8 hPa 0,0 l/m 0,0 km/h (0 Bft) S-SO 157 0 min 0,0 UV-I 0 W/m 10,3 C 11,9 C 0,0 km/h (0 Bft)
29.10.2022 00:48 11,9 C 9,4 C 90 % 1023,8 hPa 0,0 l/m 0,0 km/h (0 Bft) S-SO 157 0 min 0,0 UV-I 0 W/m 10,3 C 11,9 C 0,0 km/h (0 Bft)
29.10.2022 00:51 12,0 C 9,4 C 91 % 1023,9 hPa 0,0 l/m 0,0 km/h (0 Bft) S-SO 157 0 min 0,0 UV-I 0 W/m 10,6 C 12,0 C 0,0 km/h (0 Bft)
29.10.2022 00:54 11,9 C 8,9 C 90 % 1023,8 hPa 0,0 l/m 0,0 km/h (0 Bft) S-SO 157 0 min 0,0 UV-I 0 W/m 10,3 C 11,9 C 0,0 km/h (0 Bft)
29.10.2022 00:57 11,7 C 8,9 C 90 % 1023,8 hPa 0,0 l/m 0,0 km/h (0 Bft) S-SO 157 0 min 0,0 UV-I 0 W/m 10,1 C 11,7 C 1,6 km/h (1 Bft)
29.10.2022 01:00 11,2 C 8,9 C 90 % 1023,8 hPa 0,0 l/m 0,0 km/h (0 Bft) S-SO 157 0 min 0,0 UV-I 0 W/m 9,6 C 11,2 C 0,0 km/h (0 Bft)
29.10.2022 01:03 11,2 C 8,9 C 91 % 1023,7 hPa 0,0 l/m 0,0 km/h (0 Bft) S-SO 157 0 min 0,0 UV-I 0 W/m 9,8 C 11,2 C 1,6 km/h (1 Bft)
29.10.2022 01:06 11,4 C 9,4 C 91 % 1023,7 hPa 0,0 l/m 0,0 km/h (0 Bft) S-SO 157 0 min 0,0 UV-I 0 W/m 10,0 C 11,4 C 0,0 km/h (0 Bft)
29.10.2022 01:09 11,7 C 9,4 C 92 % 1023,7 hPa 0,0 l/m 0,0 km/h (0 Bft) S-SO 157 0 min 0,0 UV-I 0 W/m 10,4 C 11,7 C 0,0 km/h (0 Bft)
29.10.2022 01:12 11,5 C 9,4 C 91 % 1023,7 hPa 0,0 l/m 0,0 km/h (0 Bft) S-SO 157 0 min 0,0 UV-I 0 W/m 10,1 C 11,5 C 0,0 km/h (0 Bft)
29.10.2022 01:15 11,7 C 10,0 C 92 % 1023,7 hPa 0,0 l/m 0,0 km/h (0 Bft) S-SO 157 0 min 0,0 UV-I 0 W/m 10,4 C 11,7 C 1,6 km/h (1 Bft)
29.10.2022 01:18 12,1 C 10,0 C 92 % 1023,7 hPa 0,0 l/m 0,6 km/h (0 Bft) S-SO 157 0 min 0,0 UV-I 0 W/m 10,8 C 12,1 C 1,6 km/h (1 Bft)
29.10.2022 01:21 12,1 C 10,0 C 91 % 1023,6 hPa 0,0 l/m 1,0 km/h (0 Bft) S-SO 157 0 min 0,0 UV-I 0 W/m 10,7 C 12,1 C 3,2 km/h (1 Bft)
29.10.2022 01:24 12,3 C 10,0 C 91 % 1023,7 hPa 0,0 l/m 1,1 km/h (1 Bft) S-SO 157 0 min 0,0 UV-I 0 W/m 10,9 C 12,3 C 3,2 km/h (1 Bft)
29.10.2022 01:27 12,4 C 10,0 C 91 % 1023,5 hPa 0,0 l/m 0,8 km/h (0 Bft) S-SO 157 0 min 0,0 UV-I 0 W/m 11,0 C 12,4 C 3,2 km/h (1 Bft)
29.10.2022 01:30 12,4 C 10,0 C 91 % 1023,5 hPa 0,0 l/m 0,4 km/h (0 Bft) S-SO 157 0 min 0,0 UV-I 0 W/m 11,0 C 12,4 C 1,6 km/h (1 Bft)
29.10.2022 01:33 12,2 C 9,4 C 90 % 1023,5 hPa 0,0 l/m 0,5 km/h (0 Bft) S-SO 157 0 min 0,0 UV-I 0 W/m 10,6 C 12,2 C 1,6 km/h (1 Bft)
29.10.2022 01:36 11,6 C 9,4 C 89 % 1023,5 hPa 0,0 l/m 1,0 km/h (0 Bft) S-SO 157 0 min 0,0 UV-I 0 W/m 9,8 C 11,6 C 3,2 km/h (1 Bft)
29.10.2022 01:39 11,4 C 9,4 C 90 % 1023,7 hPa 0,0 l/m 2,8 km/h (1 Bft) S-SO 157 0 min 0,0 UV-I 0 W/m 9,8 C 11,4 C 4,8 km/h (1 Bft)
29.10.2022 01:42 11,6 C 9,4 C 91 % 1023,6 hPa 0,0 l/m 2,8 km/h (1 Bft) S-SO 157 0 min 0,0 UV-I 0 W/m 10,2 C 11,6 C 4,8 km/h (1 Bft)
29.10.2022 01:45 11,6 C 9,4 C 91 % 1023,6 hPa 0,0 l/m 1,5 km/h (1 Bft) S-SO 157 0 min 0,0 UV-I 0 W/m 10,2 C 11,6 C 3,2 km/h (1 Bft)
29.10.2022 01:48 11,6 C 9,4 C 91 % 1023,5 hPa 0,0 l/m 0,6 km/h (0 Bft) S-SO 157 0 min 0,0 UV-I 0 W/m 10,2 C 11,6 C 1,6 km/h (1 Bft)
29.10.2022 01:51 11,6 C 9,4 C 91 % 1023,5 hPa 0,0 l/m 0,1 km/h (0 Bft) S-SO 157 0 min 0,0 UV-I 0 W/m 10,2 C 11,6 C 1,6 km/h (1 Bft)
29.10.2022 01:54 11,7 C 9,4 C 91 % 1023,6 hPa 0,0 l/m 0,7 km/h (0 Bft) S-SO 157 0 min 0,0 UV-I 0 W/m 10,3 C 11,7 C 1,6 km/h (1 Bft)
29.10.2022 01:57 11,9 C 9,4 C 92 % 1023,7 hPa 0,0 l/m 1,9 km/h (1 Bft) S-SO 157 0 min 0,0 UV-I 0 W/m 10,6 C 11,9 C 3,2 km/h (1 Bft)
29.10.2022 02:00 12,2 C 10,0 C 91 % 1023,6 hPa 0,0 l/m 1,7 km/h (1 Bft) S-SO 157 0 min 0,0 UV-I 0 W/m 10,8 C 12,2 C 3,2 km/h (1 Bft)
29.10.2022 02:03 12,1 C 10,0 C 91 % 1023,7 hPa 0,0 l/m 0,6 km/h (0 Bft) S-SO 157 0 min 0,0 UV-I 0 W/m 10,7 C 12,1 C 3,2 km/h (1 Bft)
29.10.2022 02:06 11,8 C 9,4 C 90 % 1023,6 hPa 0,0 l/m 0,0 km/h (0 Bft) S-SO 157 0 min 0,0 UV-I 0 W/m 10,2 C 11,8 C 0,0 km/h (0 Bft)
29.10.2022 02:09 11,4 C 9,4 C 90 % 1023,6 hPa 0,0 l/m 0,4 km/h (0 Bft) S-SO 157 0 min 0,0 UV-I 0 W/m 9,8 C 11,4 C 1,6 km/h (1 Bft)
29.10.2022 02:12 11,4 C 9,4 C 91 % 1023,6 hPa 0,0 l/m 1,4 km/h (1 Bft) S-SO 157 0 min 0,0 UV-I 0 W/m 10,0 C 11,4 C 3,2 km/h (1 Bft)
29.10.2022 02:15 11,5 C 9,4 C 91 % 1023,6 hPa 0,0 l/m 1,5 km/h (1 Bft) S-SO 157 0 min 0,0 UV-I 0 W/m 10,1 C 11,5 C 3,2 km/h (1 Bft)
29.10.2022 02:18 11,6 C 9,4 C 91 % 1023,6 hPa 0,0 l/m 1,5 km/h (1 Bft) S-SO 157 0 min 0,0 UV-I 0 W/m 10,2 C 11,6 C 3,2 km/h (1 Bft)
29.10.2022 02:21 11,5 C 9,4 C 91 % 1023,6 hPa 0,0 l/m 0,9 km/h (0 Bft) S-SO 157 0 min 0,0 UV-I 0 W/m 10,1 C 11,5 C 3,2 km/h (1 Bft)
29.10.2022 02:24 11,4 C 9,4 C 91 % 1023,6 hPa 0,0 l/m 0,6 km/h (0 Bft) S-SO 157 0 min 0,0 UV-I 0 W/m 10,0 C 11,4 C 1,6 km/h (1 Bft)
29.10.2022 02:27 11,5 C 9,4 C 92 % 1023,6 hPa 0,0 l/m 1,1 km/h (1 Bft) S-SO 157 0 min 0,0 UV-I 0 W/m 10,2 C 11,5 C 1,6 km/h (1 Bft)
29.10.2022 02:30 11,7 C 9,4 C 92 % 1023,5 hPa 0,0 l/m 1,6 km/h (1 Bft) S-SO 157 0 min 0,0 UV-I 0 W/m 10,4 C 11,7 C 3,2 km/h (1 Bft)
29.10.2022 02:33 11,6 C 9,4 C 91 % 1023,5 hPa 0,0 l/m 2,2 km/h (1 Bft) S-SO 157 0 min 0,0 UV-I 0 W/m 10,2 C 11,6 C 3,2 km/h (1 Bft)
29.10.2022 02:36 11,5 C 10,0 C 91 % 1023,5 hPa 0,0 l/m 2,1 km/h (1 Bft) S-SO 157 0 min 0,0 UV-I 0 W/m 10,1 C 11,5 C 3,2 km/h (1 Bft)
29.10.2022 02:39 11,6 C 9,4 C 92 % 1023,6 hPa 0,0 l/m 2,4 km/h (1 Bft) S-SO 157 0 min 0,0 UV-I 0 W/m 10,3 C 11,6 C 3,2 km/h (1 Bft)
29.10.2022 02:42 11,7 C 9,4 C 92 % 1023,7 hPa 0,0 l/m 0,2 km/h (0 Bft) S-SO 157 0 min 0,0 UV-I 0 W/m 10,4 C 11,7 C 1,6 km/h (1 Bft)
29.10.2022 02:45 11,3 C 9,4 C 91 % 1023,7 hPa 0,0 l/m 0,0 km/h (0 Bft) S-SO 157 0 min 0,0 UV-I 0 W/m 9,9 C 11,3 C 0,0 km/h (0 Bft)
29.10.2022 02:48 11,3 C 9,4 C 92 % 1023,7 hPa 0,0 l/m 0,0 km/h (0 Bft) S-SO 157 0 min 0,0 UV-I 0 W/m 10,0 C 11,3 C 0,0 km/h (0 Bft)
29.10.2022 02:51 11,5 C 8,9 C 92 % 1023,7 hPa 0,0 l/m 0,0 km/h (0 Bft) S-SO 157 0 min 0,0 UV-I 0 W/m 10,2 C 11,5 C 0,0 km/h (0 Bft)
29.10.2022 02:54 11,7 C 8,9 C 92 % 1023,6 hPa 0,0 l/m 0,0 km/h (0 Bft) S-SO 157 0 min 0,0 UV-I 0 W/m 10,4 C 11,7 C 0,0 km/h (0 Bft)
29.10.2022 02:57 11,7 C 8,9 C 92 % 1023,5 hPa 0,0 l/m 0,0 km/h (0 Bft) S-SO 157 0 min 0,0 UV-I 0 W/m 10,4 C 11,7 C 0,0 km/h (0 Bft)
29.10.2022 03:00 11,7 C 8,9 C 91 % 1023,5 hPa 0,0 l/m 0,7 km/h (0 Bft) S-SO 157 0 min 0,0 UV-I 0 W/m 10,3 C 11,7 C 1,6 km/h (1 Bft)
29.10.2022 03:03 11,3 C 8,3 C 91 % 1023,4 hPa 0,0 l/m 0,9 km/h (0 Bft) S-SO 157 0 min 0,0 UV-I 0 W/m 9,9 C 11,3 C 1,6 km/h (1 Bft)
29.10.2022 03:06 11,1 C 8,3 C 91 % 1023,4 hPa 0,0 l/m 0,2 km/h (0 Bft) S-SO 157 0 min 0,0 UV-I 0 W/m 9,7 C 11,1 C 1,6 km/h (1 Bft)
29.10.2022 03:09 10,8 C 8,3 C 91 % 1023,4 hPa 0,0 l/m 0,0 km/h (0 Bft) S-SO 157 0 min 0,0 UV-I 0 W/m 9,4 C 10,8 C 0,0 km/h (0 Bft)
29.10.2022 03:12 10,9 C 8,9 C 92 % 1023,5 hPa 0,0 l/m 0,2 km/h (0 Bft) S-SO 157 0 min 0,0 UV-I 0 W/m 9,7 C 10,9 C 1,6 km/h (1 Bft)
29.10.2022 03:15 11,1 C 8,3 C 92 % 1023,5 hPa 0,0 l/m 1,4 km/h (1 Bft) S-SO 157 0 min 0,0 UV-I 0 W/m 9,8 C 11,1 C 3,2 km/h (1 Bft)
29.10.2022 03:18 11,1 C 8,3 C 92 % 1023,4 hPa 0,0 l/m 0,6 km/h (0 Bft) S-SO 157 0 min 0,0 UV-I 0 W/m 9,8 C 11,1 C 1,6 km/h (1 Bft)
29.10.2022 03:21 10,7 C 8,3 C 91 % 1023,3 hPa 0,0 l/m 0,0 km/h (0 Bft) S-SO 157 0 min 0,0 UV-I 0 W/m 9,3 C 10,7 C 0,0 km/h (0 Bft)
29.10.2022 03:24 10,6 C 8,3 C 91 % 1023,4 hPa 0,0 l/m 0,0 km/h (0 Bft) S-SO 157 0 min 0,0 UV-I 0 W/m 9,2 C 10,6 C 0,0 km/h (0 Bft)
29.10.2022 03:27 10,3 C 7,8 C 91 % 1023,5 hPa 0,0 l/m 0,0 km/h (0 Bft) S-SO 157 0 min 0,0 UV-I 0 W/m 8,9 C 10,3 C 1,6 km/h (1 Bft)
29.10.2022 03:30 10,3 C 8,3 C 92 % 1023,3 hPa 0,0 l/m 0,0 km/h (0 Bft) S-SO 157 0 min 0,0 UV-I 0 W/m 9,1 C 10,3 C 0,0 km/h (0 Bft)
29.10.2022 03:33 10,3 C 8,3 C 92 % 1023,4 hPa 0,0 l/m 0,0 km/h (0 Bft) S-SO 157 0 min 0,0 UV-I 0 W/m 9,1 C 10,3 C 0,0 km/h (0 Bft)
29.10.2022 03:36 10,6 C 8,3 C 92 % 1023,3 hPa 0,0 l/m 0,2 km/h (0 Bft) S-SO 157 0 min 0,0 UV-I 0 W/m 9,4 C 10,6 C 1,6 km/h (1 Bft)
29.10.2022 03:39 11,2 C 8,3 C 93 % 1023,2 hPa 0,0 l/m 1,6 km/h (1 Bft) S-SO 157 0 min 0,0 UV-I 0 W/m 10,1 C 11,2 C 3,2 km/h (1 Bft)
29.10.2022 03:42 11,4 C 8,9 C 93 % 1023,3 hPa 0,0 l/m 1,1 km/h (1 Bft) S-SO 157 0 min 0,0 UV-I 0 W/m 10,3 C 11,4 C 3,2 km/h (1 Bft)
29.10.2022 03:45 11,5 C 8,3 C 93 % 1023,2 hPa 0,0 l/m 0,2 km/h (0 Bft) S-SO 157 0 min 0,0 UV-I 0 W/m 10,4 C 11,5 C 1,6 km/h (1 Bft)
29.10.2022 03:48 11,4 C 8,9 C 92 % 1023,2 hPa 0,0 l/m 0,9 km/h (0 Bft) S-SO 157 0 min 0,0 UV-I 0 W/m 10,1 C 11,4 C 3,2 km/h (1 Bft)
29.10.2022 03:51 11,2 C 8,3 C 92 % 1023,2 hPa 0,0 l/m 0,9 km/h (0 Bft) S-SO 157 0 min 0,0 UV-I 0 W/m 9,9 C 11,2 C 3,2 km/h (1 Bft)
29.10.2022 03:54 11,3 C 8,9 C 92 % 1023,2 hPa 0,0 l/m 2,0 km/h (1 Bft) S-SO 157 0 min 0,0 UV-I 0 W/m 10,0 C 11,3 C 3,2 km/h (1 Bft)
29.10.2022 03:57 11,1 C 8,3 C 92 % 1023,3 hPa 0,0 l/m 1,1 km/h (1 Bft) S-SO 157 0 min 0,0 UV-I 0 W/m 9,8 C 11,1 C 3,2 km/h (1 Bft)
29.10.2022 04:00 10,9 C 8,3 C 92 % 1023,2 hPa 0,0 l/m 0,0 km/h (0 Bft) S-SO 157 0 min 0,0 UV-I 0 W/m 9,7 C 10,9 C 0,0 km/h (0 Bft)
29.10.2022 04:03 10,6 C 8,3 C 91 % 1023,2 hPa 0,0 l/m 0,0 km/h (0 Bft) S-SO 157 0 min 0,0 UV-I 0 W/m 9,2 C 10,6 C 0,0 km/h (0 Bft)
29.10.2022 04:06 10,7 C 8,3 C 92 % 1023,3 hPa 0,0 l/m 0,0 km/h (0 Bft) S-SO 157 0 min 0,0 UV-I 0 W/m 9,5 C 10,7 C 1,6 km/h (1 Bft)
29.10.2022 04:09 10,7 C 8,3 C 92 % 1023,1 hPa 0,0 l/m 0,0 km/h (0 Bft) S-SO 157 0 min 0,0 UV-I 0 W/m 9,5 C 10,7 C 0,0 km/h (0 Bft)
29.10.2022 04:12 10,6 C 7,8 C 92 % 1023,0 hPa 0,0 l/m 0,0 km/h (0 Bft) S-SO 157 0 min 0,0 UV-I 0 W/m 9,4 C 10,6 C 0,0 km/h (0 Bft)
29.10.2022 04:15 10,5 C 7,8 C 92 % 1023,2 hPa 0,0 l/m 0,1 km/h (0 Bft) S-SO 157 0 min 0,0 UV-I 0 W/m 9,3 C 10,5 C 1,6 km/h (1 Bft)
29.10.2022 04:18 10,7 C 7,8 C 93 % 1023,1 hPa 0,0 l/m 0,8 km/h (0 Bft) S-SO 157 0 min 0,0 UV-I 0 W/m 9,6 C 10,7 C 1,6 km/h (1 Bft)
29.10.2022 04:21 11,0 C 8,3 C 93 % 1023,1 hPa 0,0 l/m 0,4 km/h (0 Bft) S-SO 157 0 min 0,0 UV-I 0 W/m 9,9 C 11,0 C 1,6 km/h (1 Bft)
29.10.2022 04:24 11,2 C 8,9 C 93 % 1023,0 hPa 0,0 l/m 0,0 km/h (0 Bft) S-SO 157 0 min 0,0 UV-I 0 W/m 10,1 C 11,2 C 0,0 km/h (0 Bft)
29.10.2022 04:27 11,3 C 8,3 C 93 % 1023,0 hPa 0,0 l/m 0,0 km/h (0 Bft) S-SO 157 0 min 0,0 UV-I 0 W/m 10,2 C 11,3 C 1,6 km/h (1 Bft)
29.10.2022 04:30 11,4 C 8,9 C 93 % 1023,0 hPa 0,0 l/m 0,4 km/h (0 Bft) S-SO 157 0 min 0,0 UV-I 0 W/m 10,3 C 11,4 C 1,6 km/h (1 Bft)
29.10.2022 04:33 11,2 C 8,9 C 92 % 1023,0 hPa 0,0 l/m 1,6 km/h (1 Bft) S-SO 157 0 min 0,0 UV-I 0 W/m 9,9 C 11,2 C 4,8 km/h (1 Bft)
29.10.2022 04:36 10,8 C 8,9 C 92 % 1022,9 hPa 0,0 l/m 0,7 km/h (0 Bft) S-SO 157 0 min 0,0 UV-I 0 W/m 9,6 C 10,8 C 1,6 km/h (1 Bft)
29.10.2022 04:39 10,9 C 8,9 C 92 % 1022,9 hPa 0,0 l/m 0,0 km/h (0 Bft) S-SO 157 0 min 0,0 UV-I 0 W/m 9,7 C 10,9 C 1,6 km/h (1 Bft)
29.10.2022 04:42 10,8 C 8,9 C 92 % 1022,8 hPa 0,0 l/m 0,1 km/h (0 Bft) S-SO 157 0 min 0,0 UV-I 0 W/m 9,6 C 10,8 C 1,6 km/h (1 Bft)
29.10.2022 04:45 10,8 C 8,9 C 92 % 1022,6 hPa 0,0 l/m 0,3 km/h (0 Bft) S-SO 157 0 min 0,0 UV-I 0 W/m 9,6 C 10,8 C 1,6 km/h (1 Bft)
29.10.2022 04:48 11,0 C 8,9 C 93 % 1022,6 hPa 0,0 l/m 0,5 km/h (0 Bft) S-SO 157 0 min 0,0 UV-I 0 W/m 9,9 C 11,0 C 3,2 km/h (1 Bft)
29.10.2022 04:51 11,2 C 8,9 C 93 % 1022,7 hPa 0,0 l/m 0,2 km/h (0 Bft) S-SO 157 0 min 0,0 UV-I 0 W/m 10,1 C 11,2 C 1,6 km/h (1 Bft)
29.10.2022 04:54 11,4 C 9,4 C 93 % 1022,6 hPa 0,0 l/m 1,0 km/h (0 Bft) S-SO 157 0 min 0,0 UV-I 0 W/m 10,3 C 11,4 C 3,2 km/h (1 Bft)
29.10.2022 04:57 11,3 C 8,9 C 92 % 1022,6 hPa 0,0 l/m 1,4 km/h (1 Bft) S-SO 157 0 min 0,0 UV-I 0 W/m 10,0 C 11,3 C 3,2 km/h (1 Bft)
29.10.2022 05:00 10,8 C 8,9 C 92 % 1022,7 hPa 0,0 l/m 0,2 km/h (0 Bft) S-SO 157 0 min 0,0 UV-I 0 W/m 9,6 C 10,8 C 1,6 km/h (1 Bft)
29.10.2022 05:03 10,4 C 8,9 C 91 % 1022,6 hPa 0,0 l/m 0,1 km/h (0 Bft) S-SO 157 0 min 0,0 UV-I 0 W/m 9,0 C 10,4 C 1,6 km/h (1 Bft)
29.10.2022 05:06 10,3 C 8,9 C 92 % 1022,4 hPa 0,0 l/m 0,0 km/h (0 Bft) S-SO 157 0 min 0,0 UV-I 0 W/m 9,1 C 10,3 C 0,0 km/h (0 Bft)
29.10.2022 05:09 10,3 C 8,9 C 92 % 1022,5 hPa 0,0 l/m 0,0 km/h (0 Bft) S-SO 157 0 min 0,0 UV-I 0 W/m 9,1 C 10,3 C 0,0 km/h (0 Bft)
29.10.2022 05:12 10,4 C 9,4 C 92 % 1022,6 hPa 0,0 l/m 0,0 km/h (0 Bft) S-SO 157 0 min 0,0 UV-I 0 W/m 9,2 C 10,4 C 0,0 km/h (0 Bft)
29.10.2022 05:15 10,6 C 9,4 C 93 % 1022,5 hPa 0,0 l/m 1,3 km/h (1 Bft) S-SO 157 0 min 0,0 UV-I 0 W/m 9,5 C 10,6 C 3,2 km/h (1 Bft)
29.10.2022 05:18 10,8 C 9,4 C 93 % 1022,6 hPa 0,0 l/m 2,1 km/h (1 Bft) S-SO 157 0 min 0,0 UV-I 0 W/m 9,7 C 10,8 C 3,2 km/h (1 Bft)
29.10.2022 05:21 10,5 C 9,4 C 92 % 1022,7 hPa 0,0 l/m 0,1 km/h (0 Bft) S-SO 157 0 min 0,0 UV-I 0 W/m 9,3 C 10,5 C 1,6 km/h (1 Bft)
29.10.2022 05:24 10,5 C 9,4 C 92 % 1022,8 hPa 0,0 l/m 0,9 km/h (0 Bft) S-SO 157 0 min 0,0 UV-I 0 W/m 9,3 C 10,5 C 3,2 km/h (1 Bft)
29.10.2022 05:27 10,8 C 9,4 C 93 % 1022,7 hPa 0,0 l/m 2,5 km/h (1 Bft) S-SO 157 0 min 0,0 UV-I 0 W/m 9,7 C 10,8 C 3,2 km/h (1 Bft)
29.10.2022 05:30 10,9 C 10,0 C 93 % 1022,6 hPa 0,0 l/m 0,4 km/h (0 Bft) S-SO 157 0 min 0,0 UV-I 0 W/m 9,8 C 10,9 C 3,2 km/h (1 Bft)
29.10.2022 05:33 10,8 C 10,0 C 92 % 1022,5 hPa 0,0 l/m 0,4 km/h (0 Bft) S-SO 157 0 min 0,0 UV-I 0 W/m 9,6 C 10,8 C 1,6 km/h (1 Bft)
29.10.2022 05:36 10,9 C 10,0 C 93 % 1022,5 hPa 0,0 l/m 1,9 km/h (1 Bft) S-SO 150 0 min 0,0 UV-I 0 W/m 9,8 C 10,9 C 4,8 km/h (1 Bft)
29.10.2022 05:39 11,1 C 10,0 C 93 % 1022,5 hPa 0,0 l/m 1,2 km/h (1 Bft) S-SO 150 0 min 0,0 UV-I 0 W/m 10,0 C 11,1 C 3,2 km/h (1 Bft)
29.10.2022 05:42 11,3 C 10,0 C 93 % 1022,4 hPa 0,0 l/m 3,1 km/h (1 Bft) SO 144 0 min 0,0 UV-I 0 W/m 10,2 C 11,3 C 6,4 km/h (2 Bft)
29.10.2022 05:45 11,4 C 10,6 C 93 % 1022,2 hPa 0,0 l/m 3,4 km/h (1 Bft) SO 142 0 min 0,0 UV-I 0 W/m 10,3 C 11,4 C 6,4 km/h (2 Bft)
29.10.2022 05:48 11,6 C 10,6 C 93 % 1022,1 hPa 0,0 l/m 2,8 km/h (1 Bft) SO 136 0 min 0,0 UV-I 0 W/m 10,5 C 11,6 C 6,4 km/h (2 Bft)
29.10.2022 05:51 11,6 C 10,6 C 93 % 1022,0 hPa 0,0 l/m 2,9 km/h (1 Bft) SO 134 0 min 0,0 UV-I 0 W/m 10,5 C 11,6 C 6,4 km/h (2 Bft)
29.10.2022 05:54 11,7 C 10,6 C 92 % 1022,0 hPa 0,0 l/m 3,0 km/h (1 Bft) SO 135 0 min 0,0 UV-I 0 W/m 10,4 C 11,7 C 4,8 km/h (1 Bft)
29.10.2022 05:57 11,8 C 10,6 C 93 % 1022,1 hPa 0,0 l/m 3,4 km/h (1 Bft) SO 135 0 min 0,0 UV-I 0 W/m 10,7 C 11,8 C 6,4 km/h (2 Bft)
29.10.2022 06:00 11,8 C 10,6 C 92 % 1022,2 hPa 0,0 l/m 2,9 km/h (1 Bft) SO 135 0 min 0,0 UV-I 0 W/m 10,5 C 11,8 C 4,8 km/h (1 Bft)
29.10.2022 06:03 11,9 C 10,6 C 92 % 1022,4 hPa 0,0 l/m 1,7 km/h (1 Bft) SO 135 0 min 0,0 UV-I 0 W/m 10,6 C 11,9 C 3,2 km/h (1 Bft)
29.10.2022 06:06 11,2 C 10,0 C 90 % 1022,3 hPa 0,0 l/m 1,0 km/h (0 Bft) SO 135 0 min 0,0 UV-I 0 W/m 9,6 C 11,2 C 3,2 km/h (1 Bft)
29.10.2022 06:09 10,7 C 10,0 C 91 % 1022,2 hPa 0,0 l/m 0,0 km/h (0 Bft) SO 135 0 min 0,0 UV-I 0 W/m 9,3 C 10,7 C 0,0 km/h (0 Bft)
29.10.2022 06:12 10,6 C 10,0 C 92 % 1022,3 hPa 0,0 l/m 0,1 km/h (0 Bft) SO 135 0 min 0,0 UV-I 0 W/m 9,4 C 10,6 C 1,6 km/h (1 Bft)
29.10.2022 06:15 10,5 C 9,4 C 92 % 1022,2 hPa 0,0 l/m 0,0 km/h (0 Bft) SO 135 0 min 0,0 UV-I 0 W/m 9,3 C 10,5 C 0,0 km/h (0 Bft)
29.10.2022 06:18 10,8 C 9,4 C 93 % 1022,2 hPa 0,0 l/m 0,9 km/h (0 Bft) SO 134 0 min 0,0 UV-I 0 W/m 9,7 C 10,8 C 4,8 km/h (1 Bft)
29.10.2022 06:21 11,3 C 9,4 C 93 % 1022,2 hPa 0,0 l/m 0,1 km/h (0 Bft) SO 134 0 min 0,0 UV-I 0 W/m 10,2 C 11,3 C 1,6 km/h (1 Bft)
29.10.2022 06:24 11,4 C 10,0 C 93 % 1022,0 hPa 0,0 l/m 0,1 km/h (0 Bft) SO 134 0 min 0,0 UV-I 0 W/m 10,3 C 11,4 C 1,6 km/h (1 Bft)
29.10.2022 06:27 11,4 C 10,0 C 92 % 1022,1 hPa 0,0 l/m 0,3 km/h (0 Bft) SO 134 0 min 0,0 UV-I 0 W/m 10,1 C 11,4 C 3,2 km/h (1 Bft)
29.10.2022 06:30 11,7 C 10,0 C 93 % 1022,0 hPa 0,0 l/m 2,9 km/h (1 Bft) SO 130 0 min 0,0 UV-I 0 W/m 10,6 C 11,7 C 6,4 km/h (2 Bft)
29.10.2022 06:33 12,2 C 10,6 C 93 % 1021,9 hPa 0,0 l/m 2,6 km/h (1 Bft) S 179 0 min 0,0 UV-I 0 W/m 11,1 C 12,2 C 4,8 km/h (1 Bft)
29.10.2022 06:36 12,4 C 11,1 C 93 % 1022,0 hPa 0,0 l/m 2,9 km/h (1 Bft) S-SO 167 0 min 0,0 UV-I 0 W/m 11,3 C 12,4 C 6,4 km/h (2 Bft)
29.10.2022 06:39 12,4 C 11,1 C 92 % 1022,2 hPa 0,0 l/m 2,2 km/h (1 Bft) S-SO 167 0 min 0,0 UV-I 0 W/m 11,1 C 12,4 C 4,8 km/h (1 Bft)
29.10.2022 06:42 12,2 C 10,6 C 91 % 1022,1 hPa 0,0 l/m 4,3 km/h (1 Bft) S-SO 161 0 min 0,0 UV-I 0 W/m 10,8 C 12,2 C 8,0 km/h (2 Bft)
29.10.2022 06:45 12,4 C 11,1 C 92 % 1022,1 hPa 0,0 l/m 4,7 km/h (1 Bft) S-SO 164 0 min 0,0 UV-I 0 W/m 11,1 C 12,4 C 9,7 km/h (2 Bft)
29.10.2022 06:48 12,3 C 11,1 C 92 % 1022,1 hPa 0,0 l/m 0,3 km/h (0 Bft) S-SO 164 0 min 0,0 UV-I 0 W/m 11,0 C 12,3 C 1,6 km/h (1 Bft)
29.10.2022 06:51 12,0 C 10,6 C 91 % 1022,1 hPa 0,0 l/m 1,1 km/h (1 Bft) S-SO 160 0 min 0,0 UV-I 0 W/m 10,6 C 12,0 C 6,4 km/h (2 Bft)
29.10.2022 06:54 11,9 C 10,6 C 91 % 1022,1 hPa 0,0 l/m 0,2 km/h (0 Bft) S-SO 160 0 min 0,0 UV-I 0 W/m 10,5 C 11,9 C 1,6 km/h (1 Bft)
29.10.2022 06:57 12,1 C 10,6 C 92 % 1022,0 hPa 0,0 l/m 1,1 km/h (1 Bft) S-SO 160 0 min 0,0 UV-I 0 W/m 10,8 C 12,1 C 3,2 km/h (1 Bft)
29.10.2022 07:00 12,2 C 10,6 C 92 % 1022,0 hPa 0,0 l/m 1,3 km/h (1 Bft) S-SO 159 0 min 0,0 UV-I 0 W/m 10,9 C 12,2 C 3,2 km/h (1 Bft)
29.10.2022 07:01 12,3 C 10,6 C 92 % 1021,9 hPa 0,0 l/m 1,6 km/h (1 Bft) S-SO 157 0 min 0,0 UV-I 0 W/m 11,0 C 12,3 C 1,6 km/h (1 Bft)
29.10.2022 07:03 12,2 C 10,6 C 90 % 1021,9 hPa 0,0 l/m 1,9 km/h (1 Bft) O-SO 105 0 min 0,0 UV-I 0 W/m 10,6 C 12,2 C 3,2 km/h (1 Bft)
29.10.2022 07:06 11,2 C 9,4 C 90 % 1021,7 hPa 0,0 l/m 0,9 km/h (0 Bft) O-SO 105 0 min 0,0 UV-I 0 W/m 9,6 C 11,2 C 3,2 km/h (1 Bft)
29.10.2022 07:09 11,0 C 9,4 C 91 % 1021,8 hPa 0,0 l/m 0,9 km/h (0 Bft) O-SO 105 0 min 0,0 UV-I 0 W/m 9,6 C 11,0 C 3,2 km/h (1 Bft)
29.10.2022 07:12 10,8 C 8,9 C 91 % 1021,8 hPa 0,0 l/m 0,5 km/h (0 Bft) O-SO 105 0 min 0,0 UV-I 0 W/m 9,4 C 10,8 C 1,6 km/h (1 Bft)
29.10.2022 07:15 10,6 C 8,9 C 91 % 1021,7 hPa 0,0 l/m 1,0 km/h (0 Bft) O-SO 105 0 min 0,0 UV-I 0 W/m 9,2 C 10,6 C 3,2 km/h (1 Bft)
29.10.2022 07:18 10,3 C 8,9 C 91 % 1021,8 hPa 0,0 l/m 1,9 km/h (1 Bft) O-SO 105 0 min 0,0 UV-I 0 W/m 8,9 C 10,3 C 3,2 km/h (1 Bft)
29.10.2022 07:21 10,2 C 8,9 C 91 % 1021,8 hPa 0,0 l/m 1,3 km/h (1 Bft) O-SO 105 0 min 0,0 UV-I 0 W/m 8,8 C 10,2 C 4,8 km/h (1 Bft)
29.10.2022 07:24 10,3 C 8,9 C 92 % 1021,8 hPa 0,0 l/m 0,0 km/h (0 Bft) O-SO 104 0 min 0,0 UV-I 0 W/m 9,1 C 10,3 C 1,6 km/h (1 Bft)
29.10.2022 07:27 10,2 C 8,9 C 91 % 1021,8 hPa 0,0 l/m 0,1 km/h (0 Bft) O-SO 105 0 min 0,0 UV-I 0 W/m 8,8 C 10,2 C 1,6 km/h (1 Bft)
29.10.2022 07:30 10,1 C 8,9 C 92 % 1021,7 hPa 0,0 l/m 1,6 km/h (1 Bft) S 182 0 min 0,0 UV-I 0 W/m 8,9 C 10,1 C 6,4 km/h (2 Bft)
29.10.2022 07:33 10,2 C 9,4 C 92 % 1021,8 hPa 0,0 l/m 0,1 km/h (0 Bft) S 182 0 min 0,0 UV-I 0 W/m 9,0 C 10,2 C 1,6 km/h (1 Bft)
29.10.2022 07:36 10,2 C 9,4 C 92 % 1021,9 hPa 0,0 l/m 1,9 km/h (1 Bft) S 182 0 min 0,0 UV-I 0 W/m 9,0 C 10,2 C 3,2 km/h (1 Bft)
29.10.2022 07:39 10,3 C 9,4 C 92 % 1021,8 hPa 0,0 l/m 2,0 km/h (1 Bft) S 182 0 min 0,0 UV-I 0 W/m 9,1 C 10,3 C 3,2 km/h (1 Bft)
29.10.2022 07:42 10,5 C 9,4 C 92 % 1021,9 hPa 0,0 l/m 3,1 km/h (1 Bft) S 182 0 min 0,0 UV-I 0 W/m 9,3 C 10,5 C 4,8 km/h (1 Bft)
29.10.2022 07:45 10,8 C 10,0 C 93 % 1021,9 hPa 0,0 l/m 2,0 km/h (1 Bft) S 182 0 min 0,0 UV-I 0 W/m 9,7 C 10,8 C 4,8 km/h (1 Bft)
29.10.2022 07:48 10,8 C 10,0 C 92 % 1021,8 hPa 0,0 l/m 1,2 km/h (1 Bft) S 182 0 min 0,0 UV-I 0 W/m 9,6 C 10,8 C 3,2 km/h (1 Bft)
29.10.2022 07:51 10,8 C 10,0 C 92 % 1021,9 hPa 0,0 l/m 0,7 km/h (0 Bft) S 182 0 min 0,0 UV-I 0 W/m 9,6 C 10,8 C 3,2 km/h (1 Bft)
29.10.2022 07:54 10,9 C 10,0 C 92 % 1021,8 hPa 0,0 l/m 2,5 km/h (1 Bft) SW 232 0 min 0,0 UV-I 0 W/m 9,7 C 10,9 C 6,4 km/h (2 Bft)
29.10.2022 07:57 10,6 C 9,4 C 91 % 1021,8 hPa 0,0 l/m 2,6 km/h (1 Bft) S-SO 162 0 min 0,0 UV-I 0 W/m 9,2 C 10,6 C 8,0 km/h (2 Bft)
29.10.2022 08:00 11,0 C 10,0 C 93 % 1021,8 hPa 0,0 l/m 4,1 km/h (1 Bft) S-SO 164 0 min 0,0 UV-I 0 W/m 9,9 C 11,0 C 11,3 km/h (2 Bft)
29.10.2022 08:03 11,4 C 10,6 C 93 % 1021,8 hPa 0,0 l/m 4,0 km/h (1 Bft) S-SO 155 0 min 0,0 UV-I 0 W/m 10,3 C 11,4 C 9,7 km/h (2 Bft)
29.10.2022 08:09 12,4 C 11,7 C 93 % 1021,8 hPa 0,0 l/m 6,5 km/h (2 Bft) SO 134 0 min 0,0 UV-I 0 W/m 11,3 C 12,4 C 12,9 km/h (3 Bft)
29.10.2022 08:12 12,9 C 12,2 C 92 % 1021,8 hPa 0,0 l/m 9,2 km/h (2 Bft) S-SO 165 0 min 0,0 UV-I 0 W/m 11,6 C 11,2 C 14,5 km/h (3 Bft)
29.10.2022 08:15 13,2 C 12,2 C 91 % 1021,8 hPa 0,0 l/m 6,8 km/h (2 Bft) SO 142 0 min 0,0 UV-I 0 W/m 11,8 C 13,0 C 11,3 km/h (2 Bft)
29.10.2022 08:18 13,3 C 12,2 C 90 % 1021,8 hPa 0,0 l/m 7,9 km/h (2 Bft) SO 142 0 min 0,0 UV-I 0 W/m 11,7 C 12,4 C 12,9 km/h (3 Bft)
29.10.2022 08:21 13,4 C 12,2 C 90 % 1021,7 hPa 0,0 l/m 8,5 km/h (2 Bft) S-SO 158 0 min 0,0 UV-I 0 W/m 11,8 C 12,1 C 14,5 km/h (3 Bft)
29.10.2022 08:24 13,6 C 12,2 C 89 % 1021,7 hPa 0,0 l/m 8,6 km/h (2 Bft) SO 136 0 min 0,0 UV-I 0 W/m 11,8 C 12,3 C 14,5 km/h (3 Bft)
29.10.2022 08:27 13,7 C 12,8 C 89 % 1021,8 hPa 0,0 l/m 8,3 km/h (2 Bft) SO 146 0 min 0,0 UV-I 0 W/m 11,9 C 12,6 C 12,9 km/h (3 Bft)
29.10.2022 08:30 13,8 C 12,8 C 88 % 1021,6 hPa 0,0 l/m 7,6 km/h (2 Bft) SO 136 0 min 0,0 UV-I 1 W/m 11,8 C 13,1 C 12,9 km/h (3 Bft)
29.10.2022 08:33 13,9 C 12,8 C 88 % 1021,8 hPa 0,0 l/m 7,5 km/h (2 Bft) S-SO 150 0 min 0,0 UV-I 5 W/m 11,9 C 13,2 C 14,5 km/h (3 Bft)
29.10.2022 08:36 14,1 C 12,8 C 87 % 1021,8 hPa 0,0 l/m 7,4 km/h (2 Bft) S-SO 162 0 min 0,0 UV-I 6 W/m 12,0 C 13,5 C 14,5 km/h (3 Bft)
29.10.2022 08:39 14,1 C 13,3 C 87 % 1021,7 hPa 0,0 l/m 8,8 km/h (2 Bft) S-SO 148 0 min 0,0 UV-I 8 W/m 12,0 C 12,7 C 12,9 km/h (3 Bft)
29.10.2022 08:42 14,2 C 13,3 C 86 % 1021,8 hPa 0,0 l/m 6,8 km/h (2 Bft) S-SO 150 0 min 0,0 UV-I 10 W/m 11,9 C 14,0 C 9,7 km/h (2 Bft)
29.10.2022 08:45 14,2 C 13,3 C 86 % 1021,7 hPa 0,0 l/m 5,1 km/h (1 Bft) S 182 0 min 0,0 UV-I 12 W/m 11,9 C 14,2 C 11,3 km/h (2 Bft)
29.10.2022 08:48 14,3 C 13,3 C 86 % 1021,8 hPa 0,0 l/m 4,5 km/h (1 Bft) S 189 0 min 0,0 UV-I 14 W/m 12,0 C 14,3 C 8,0 km/h (2 Bft)
29.10.2022 08:51 14,3 C 13,3 C 86 % 1021,8 hPa 0,0 l/m 2,7 km/h (1 Bft) S 189 0 min 0,0 UV-I 14 W/m 12,0 C 14,3 C 6,4 km/h (2 Bft)
29.10.2022 08:54 14,3 C 13,3 C 85 % 1021,8 hPa 0,0 l/m 3,8 km/h (1 Bft) S 189 0 min 0,0 UV-I 14 W/m 11,8 C 14,3 C 6,4 km/h (2 Bft)
29.10.2022 08:57 14,3 C 12,8 C 85 % 1021,9 hPa 0,0 l/m 4,2 km/h (1 Bft) S 189 0 min 0,0 UV-I 14 W/m 11,8 C 14,3 C 6,4 km/h (2 Bft)
29.10.2022 09:00 14,3 C 12,8 C 85 % 1022,0 hPa 0,0 l/m 5,4 km/h (1 Bft) S 171 0 min 0,0 UV-I 14 W/m 11,8 C 14,3 C 11,3 km/h (2 Bft)
29.10.2022 09:03 14,4 C 12,8 C 85 % 1022,0 hPa 0,0 l/m 5,5 km/h (1 Bft) S 177 0 min 0,0 UV-I 15 W/m 11,9 C 14,4 C 8,0 km/h (2 Bft)
29.10.2022 09:06 14,4 C 13,3 C 85 % 1022,0 hPa 0,0 l/m 5,4 km/h (1 Bft) S 171 0 min 0,0 UV-I 17 W/m 11,9 C 14,4 C 9,7 km/h (2 Bft)
29.10.2022 09:09 14,5 C 13,3 C 85 % 1022,0 hPa 0,0 l/m 3,4 km/h (1 Bft) S 171 0 min 0,0 UV-I 22 W/m 12,0 C 14,5 C 6,4 km/h (2 Bft)
29.10.2022 09:12 14,5 C 13,3 C 85 % 1022,0 hPa 0,0 l/m 4,4 km/h (1 Bft) S 171 0 min 0,0 UV-I 27 W/m 12,0 C 14,5 C 8,0 km/h (2 Bft)
29.10.2022 09:15 14,3 C 13,3 C 85 % 1022,0 hPa 0,0 l/m 3,3 km/h (1 Bft) S 171 0 min 0,0 UV-I 26 W/m 11,8 C 14,3 C 6,4 km/h (2 Bft)
29.10.2022 09:18 14,3 C 13,3 C 85 % 1022,2 hPa 0,0 l/m 1,9 km/h (1 Bft) S 171 0 min 0,0 UV-I 26 W/m 11,8 C 14,3 C 6,4 km/h (2 Bft)
29.10.2022 09:21 14,3 C 13,3 C 86 % 1022,1 hPa 0,0 l/m 0,9 km/h (0 Bft) S 171 0 min 0,0 UV-I 30 W/m 12,0 C 14,3 C 3,2 km/h (1 Bft)
29.10.2022 09:24 14,4 C 13,3 C 86 % 1022,0 hPa 0,0 l/m 0,8 km/h (0 Bft) S-SO 148 0 min 0,0 UV-I 37 W/m 12,1 C 14,4 C 3,2 km/h (1 Bft)
29.10.2022 09:27 14,3 C 13,3 C 86 % 1022,1 hPa 0,0 l/m 2,2 km/h (1 Bft) O-SO 123 0 min 0,0 UV-I 45 W/m 12,0 C 14,3 C 6,4 km/h (2 Bft)
29.10.2022 09:30 14,4 C 13,3 C 86 % 1022,2 hPa 0,0 l/m 0,0 km/h (0 Bft) O-SO 123 0 min 0,0 UV-I 53 W/m 12,1 C 14,4 C 1,6 km/h (1 Bft)
29.10.2022 09:33 14,6 C 13,9 C 85 % 1022,2 hPa 0,0 l/m 3,0 km/h (1 Bft) SO 133 0 min 0,0 UV-I 64 W/m 12,1 C 14,6 C 4,8 km/h (1 Bft)
29.10.2022 09:36 14,7 C 13,9 C 85 % 1022,3 hPa 0,0 l/m 4,2 km/h (1 Bft) SO 137 0 min 0,0 UV-I 69 W/m 12,2 C 14,7 C 8,0 km/h (2 Bft)
29.10.2022 09:39 14,8 C 13,9 C 85 % 1022,4 hPa 0,0 l/m 2,7 km/h (1 Bft) SO 143 0 min 0,0 UV-I 54 W/m 12,3 C 14,8 C 6,4 km/h (2 Bft)
29.10.2022 09:42 14,9 C 14,4 C 84 % 1022,3 hPa 0,0 l/m 3,0 km/h (1 Bft) S-SO 153 0 min 0,0 UV-I 45 W/m 12,2 C 14,9 C 6,4 km/h (2 Bft)
29.10.2022 09:45 15,0 C 14,4 C 83 % 1022,4 hPa 0,0 l/m 2,3 km/h (1 Bft) S-SO 153 0 min 0,0 UV-I 43 W/m 12,1 C 15,0 C 4,8 km/h (1 Bft)
29.10.2022 09:48 15,1 C 14,4 C 84 % 1022,2 hPa 0,0 l/m 1,2 km/h (1 Bft) S-SO 153 0 min 0,0 UV-I 37 W/m 12,4 C 15,1 C 4,8 km/h (1 Bft)
29.10.2022 09:51 14,9 C 13,9 C 84 % 1022,3 hPa 0,0 l/m 3,4 km/h (1 Bft) SO 128 0 min 0,0 UV-I 32 W/m 12,2 C 14,9 C 6,4 km/h (2 Bft)
29.10.2022 09:54 14,8 C 13,9 C 84 % 1022,4 hPa 0,0 l/m 3,0 km/h (1 Bft) SO 132 0 min 0,0 UV-I 35 W/m 12,1 C 14,8 C 4,8 km/h (1 Bft)
29.10.2022 09:57 14,8 C 13,9 C 84 % 1022,3 hPa 0,0 l/m 3,8 km/h (1 Bft) SO 134 0 min 0,0 UV-I 38 W/m 12,1 C 14,8 C 6,4 km/h (2 Bft)
29.10.2022 10:00 14,8 C 13,9 C 84 % 1022,4 hPa 0,0 l/m 4,2 km/h (1 Bft) S-SO 157 0 min 0,0 UV-I 33 W/m 12,1 C 14,8 C 8,0 km/h (2 Bft)
29.10.2022 10:03 14,8 C 13,9 C 84 % 1022,4 hPa 0,0 l/m 4,4 km/h (1 Bft) S-SO 163 0 min 0,0 UV-I 32 W/m 12,1 C 14,8 C 8,0 km/h (2 Bft)
29.10.2022 10:06 14,8 C 13,9 C 85 % 1022,4 hPa 0,0 l/m 4,0 km/h (1 Bft) SO 130 0 min 0,0 UV-I 35 W/m 12,3 C 14,8 C 8,0 km/h (2 Bft)
29.10.2022 10:09 14,8 C 13,9 C 85 % 1022,5 hPa 0,0 l/m 3,8 km/h (1 Bft) SO 140 0 min 0,0 UV-I 42 W/m 12,3 C 14,8 C 6,4 km/h (2 Bft)
29.10.2022 10:12 14,8 C 14,4 C 85 % 1022,4 hPa 0,0 l/m 3,8 km/h (1 Bft) SO 144 0 min 0,0 UV-I 48 W/m 12,3 C 14,8 C 8,0 km/h (2 Bft)
29.10.2022 10:15 14,8 C 14,4 C 85 % 1022,3 hPa 0,0 l/m 3,5 km/h (1 Bft) SO 145 0 min 0,0 UV-I 66 W/m 12,3 C 14,8 C 4,8 km/h (1 Bft)
29.10.2022 10:18 14,9 C 14,4 C 84 % 1022,4 hPa 0,0 l/m 2,5 km/h (1 Bft) SO 145 0 min 0,0 UV-I 75 W/m 12,2 C 14,9 C 4,8 km/h (1 Bft)
29.10.2022 10:21 14,9 C 15,0 C 84 % 1022,4 hPa 0,0 l/m 5,1 km/h (1 Bft) SO 142 0 min 0,0 UV-I 76 W/m 12,2 C 14,9 C 8,0 km/h (2 Bft)
29.10.2022 10:24 14,9 C 14,4 C 84 % 1022,4 hPa 0,0 l/m 7,4 km/h (2 Bft) SO 133 0 min 0,0 UV-I 79 W/m 12,2 C 14,3 C 12,9 km/h (3 Bft)
29.10.2022 10:27 14,9 C 15,0 C 84 % 1022,2 hPa 0,0 l/m 5,9 km/h (2 Bft) SO 141 0 min 0,0 UV-I 86 W/m 12,2 C 14,9 C 11,3 km/h (2 Bft)
29.10.2022 10:30 15,0 C 15,0 C 84 % 1022,3 hPa 0,0 l/m 3,9 km/h (1 Bft) SO 138 0 min 0,4 UV-I 89 W/m 12,3 C 15,0 C 9,7 km/h (2 Bft)
29.10.2022 10:33 15,1 C 15,0 C 84 % 1022,3 hPa 0,0 l/m 4,1 km/h (1 Bft) SO 138 0 min 0,5 UV-I 105 W/m 12,4 C 15,1 C 8,0 km/h (2 Bft)
29.10.2022 10:36 15,2 C 15,6 C 84 % 1022,2 hPa 0,0 l/m 4,4 km/h (1 Bft) S-SO 151 0 min 0,6 UV-I 107 W/m 12,5 C 15,2 C 8,0 km/h (2 Bft)
29.10.2022 10:39 15,3 C 15,6 C 83 % 1022,2 hPa 0,0 l/m 4,5 km/h (1 Bft) S 169 0 min 0,6 UV-I 115 W/m 12,4 C 15,3 C 8,0 km/h (2 Bft)
29.10.2022 10:42 15,6 C 15,6 C 83 % 1022,2 hPa 0,0 l/m 3,9 km/h (1 Bft) S 171 0 min 0,7 UV-I 126 W/m 12,7 C 15,6 C 8,0 km/h (2 Bft)
29.10.2022 10:45 15,7 C 16,1 C 83 % 1022,2 hPa 0,0 l/m 3,9 km/h (1 Bft) S 171 0 min 0,6 UV-I 114 W/m 12,8 C 15,7 C 8,0 km/h (2 Bft)
29.10.2022 10:48 15,7 C 15,6 C 82 % 1022,3 hPa 0,0 l/m 2,9 km/h (1 Bft) S 171 0 min 0,5 UV-I 95 W/m 12,6 C 15,7 C 6,4 km/h (2 Bft)
29.10.2022 10:51 15,8 C 15,6 C 82 % 1022,3 hPa 0,0 l/m 4,7 km/h (1 Bft) S 179 0 min 0,1 UV-I 77 W/m 12,7 C 15,8 C 8,0 km/h (2 Bft)
29.10.2022 10:54 15,7 C 15,6 C 82 % 1022,3 hPa 0,0 l/m 6,1 km/h (2 Bft) S-SO 150 0 min 0,0 UV-I 62 W/m 12,6 C 15,7 C 9,7 km/h (2 Bft)
29.10.2022 10:57 15,7 C 15,6 C 81 % 1022,3 hPa 0,0 l/m 5,8 km/h (2 Bft) SO 134 0 min 0,0 UV-I 62 W/m 12,4 C 15,7 C 11,3 km/h (2 Bft)
29.10.2022 11:00 15,7 C 15,6 C 81 % 1022,3 hPa 0,0 l/m 4,8 km/h (1 Bft) S-SO 149 0 min 0,2 UV-I 71 W/m 12,4 C 15,7 C 8,0 km/h (2 Bft)
29.10.2022 11:03 15,7 C 15,6 C 81 % 1022,3 hPa 0,0 l/m 4,3 km/h (1 Bft) S-SO 166 0 min 0,5 UV-I 77 W/m 12,4 C 15,7 C 8,0 km/h (2 Bft)
29.10.2022 11:06 15,7 C 15,6 C 81 % 1022,4 hPa 0,0 l/m 5,0 km/h (1 Bft) S-SO 154 0 min 0,2 UV-I 75 W/m 12,4 C 15,7 C 8,0 km/h (2 Bft)
29.10.2022 11:09 15,7 C 15,6 C 81 % 1022,2 hPa 0,0 l/m 4,5 km/h (1 Bft) SO 140 0 min 0,0 UV-I 66 W/m 12,4 C 15,7 C 6,4 km/h (2 Bft)
29.10.2022 11:12 15,7 C 15,6 C 81 % 1022,3 hPa 0,0 l/m 5,0 km/h (1 Bft) SO 143 0 min 0,0 UV-I 68 W/m 12,4 C 15,7 C 9,7 km/h (2 Bft)
29.10.2022 11:15 15,7 C 15,6 C 81 % 1022,2 hPa 0,0 l/m 5,3 km/h (1 Bft) SO 129 0 min 0,5 UV-I 94 W/m 12,4 C 15,7 C 11,3 km/h (2 Bft)
29.10.2022 11:18 15,8 C 16,1 C 80 % 1022,2 hPa 0,0 l/m 6,2 km/h (2 Bft) SO 140 0 min 0,7 UV-I 120 W/m 12,4 C 15,8 C 11,3 km/h (2 Bft)
29.10.2022 11:21 15,9 C 16,1 C 80 % 1022,2 hPa 0,0 l/m 5,7 km/h (1 Bft) S 177 0 min 0,7 UV-I 132 W/m 12,5 C 15,9 C 9,7 km/h (2 Bft)
29.10.2022 11:24 15,9 C 16,1 C 80 % 1022,1 hPa 0,0 l/m 4,7 km/h (1 Bft) S 174 0 min 0,8 UV-I 133 W/m 12,5 C 15,9 C 8,0 km/h (2 Bft)
29.10.2022 11:27 16,1 C 16,7 C 80 % 1022,2 hPa 0,0 l/m 4,1 km/h (1 Bft) S-SO 147 0 min 0,8 UV-I 132 W/m 12,6 C 16,1 C 8,0 km/h (2 Bft)
29.10.2022 11:30 16,2 C 16,7 C 79 % 1022,2 hPa 0,0 l/m 4,9 km/h (1 Bft) SO 146 0 min 0,8 UV-I 139 W/m 12,6 C 16,2 C 8,0 km/h (2 Bft)
29.10.2022 11:33 16,2 C 16,7 C 79 % 1022,4 hPa 0,0 l/m 5,6 km/h (1 Bft) S-SO 155 0 min 0,9 UV-I 149 W/m 12,6 C 16,2 C 9,7 km/h (2 Bft)
29.10.2022 11:36 16,3 C 16,7 C 79 % 1022,3 hPa 0,0 l/m 5,8 km/h (2 Bft) SO 134 0 min 0,9 UV-I 151 W/m 12,6 C 16,3 C 9,7 km/h (2 Bft)
29.10.2022 11:39 16,3 C 16,7 C 78 % 1022,3 hPa 0,0 l/m 6,8 km/h (2 Bft) S-SO 148 0 min 0,9 UV-I 152 W/m 12,5 C 16,1 C 12,9 km/h (3 Bft)
29.10.2022 11:42 16,4 C 16,7 C 79 % 1022,3 hPa 0,0 l/m 4,8 km/h (1 Bft) SO 145 0 min 0,9 UV-I 154 W/m 12,7 C 16,4 C 11,3 km/h (2 Bft)
29.10.2022 11:45 16,4 C 16,7 C 78 % 1022,2 hPa 0,0 l/m 6,0 km/h (2 Bft) SO 136 0 min 0,9 UV-I 154 W/m 12,6 C 16,4 C 12,9 km/h (3 Bft)
29.10.2022 11:48 16,4 C 16,7 C 78 % 1022,3 hPa 0,0 l/m 4,9 km/h (1 Bft) S-SO 162 0 min 0,9 UV-I 150 W/m 12,6 C 16,4 C 9,7 km/h (2 Bft)
29.10.2022 11:51 16,4 C 16,7 C 78 % 1022,3 hPa 0,0 l/m 5,5 km/h (1 Bft) S-SO 150 0 min 0,7 UV-I 133 W/m 12,6 C 16,4 C 11,3 km/h (2 Bft)
29.10.2022 11:54 16,4 C 16,7 C 78 % 1022,1 hPa 0,0 l/m 7,2 km/h (2 Bft) S-SO 147 0 min 0,7 UV-I 126 W/m 12,6 C 16,0 C 12,9 km/h (3 Bft)
29.10.2022 11:57 16,4 C 17,2 C 78 % 1022,1 hPa 0,0 l/m 6,8 km/h (2 Bft) SO 146 0 min 0,7 UV-I 135 W/m 12,6 C 16,2 C 11,3 km/h (2 Bft)
29.10.2022 12:00 16,4 C 17,8 C 78 % 1022,2 hPa 0,0 l/m 5,8 km/h (2 Bft) S-SO 166 0 min 0,9 UV-I 175 W/m 12,6 C 16,4 C 9,7 km/h (2 Bft)
29.10.2022 12:03 16,5 C 18,3 C 79 % 1022,2 hPa 0,0 l/m 5,4 km/h (1 Bft) SO 140 0 min 0,9 UV-I 182 W/m 12,8 C 16,5 C 11,3 km/h (2 Bft)
29.10.2022 12:06 16,6 C 18,3 C 79 % 1022,2 hPa 0,0 l/m 5,7 km/h (1 Bft) S 186 0 min 1,0 UV-I 201 W/m 12,9 C 16,6 C 9,7 km/h (2 Bft)
29.10.2022 12:09 16,6 C 18,3 C 79 % 1022,2 hPa 0,0 l/m 4,5 km/h (1 Bft) S 188 0 min 1,0 UV-I 192 W/m 12,9 C 16,6 C 8,0 km/h (2 Bft)
29.10.2022 12:12 16,8 C 18,9 C 78 % 1022,3 hPa 0,0 l/m 3,4 km/h (1 Bft) S-SO 167 0 min 1,1 UV-I 199 W/m 12,9 C 16,8 C 8,0 km/h (2 Bft)
29.10.2022 12:15 16,9 C 18,9 C 78 % 1022,2 hPa 0,0 l/m 1,7 km/h (1 Bft) SO 139 0 min 1,1 UV-I 202 W/m 13,0 C 16,9 C 6,4 km/h (2 Bft)
29.10.2022 12:18 17,1 C 19,4 C 77 % 1022,2 hPa 0,0 l/m 2,1 km/h (1 Bft) SO 139 0 min 1,2 UV-I 206 W/m 13,0 C 17,1 C 6,4 km/h (2 Bft)
29.10.2022 12:21 17,3 C 19,4 C 77 % 1022,1 hPa 0,0 l/m 0,1 km/h (0 Bft) SO 139 0 min 1,2 UV-I 206 W/m 13,2 C 17,3 C 1,6 km/h (1 Bft)
29.10.2022 12:24 17,4 C 19,4 C 77 % 1022,2 hPa 0,0 l/m 0,0 km/h (0 Bft) SO 139 0 min 1,2 UV-I 194 W/m 13,3 C 17,4 C 0,0 km/h (0 Bft)
29.10.2022 12:27 17,5 C 19,4 C 77 % 1022,1 hPa 0,0 l/m 0,5 km/h (0 Bft) SO 141 0 min 1,2 UV-I 194 W/m 13,4 C 17,5 C 3,2 km/h (1 Bft)
29.10.2022 12:30 17,7 C 20,6 C 78 % 1022,3 hPa 0,0 l/m 1,7 km/h (1 Bft) SO 142 0 min 1,3 UV-I 247 W/m 13,8 C 17,7 C 4,8 km/h (1 Bft)
29.10.2022 12:33 17,8 C 20,0 C 76 % 1022,3 hPa 0,0 l/m 2,9 km/h (1 Bft) S-SO 148 0 min 1,3 UV-I 208 W/m 13,5 C 17,8 C 6,4 km/h (2 Bft)
29.10.2022 12:36 17,8 C 20,0 C 76 % 1022,2 hPa 0,0 l/m 2,7 km/h (1 Bft) S-SO 148 0 min 1,3 UV-I 229 W/m 13,5 C 17,8 C 4,8 km/h (1 Bft)
29.10.2022 12:39 17,9 C 20,6 C 76 % 1022,2 hPa 0,0 l/m 3,8 km/h (1 Bft) SO 136 0 min 1,4 UV-I 253 W/m 13,6 C 17,9 C 6,4 km/h (2 Bft)
29.10.2022 12:42 18,1 C 21,7 C 76 % 1022,2 hPa 0,0 l/m 5,2 km/h (1 Bft) SO 144 3 min 1,6 UV-I 306 W/m 13,8 C 18,1 C 8,0 km/h (2 Bft)
29.10.2022 12:45 18,2 C 22,8 C 76 % 1022,1 hPa 0,0 l/m 4,1 km/h (1 Bft) SO 144 3 min 1,8 UV-I 375 W/m 13,9 C 18,2 C 8,0 km/h (2 Bft)
29.10.2022 12:48 18,4 C 23,9 C 74 % 1022,1 hPa 0,0 l/m 4,1 km/h (1 Bft) SO 131 3 min 2,0 UV-I 407 W/m 13,7 C 18,4 C 6,4 km/h (2 Bft)
29.10.2022 12:51 18,6 C 25,0 C 74 % 1022,0 hPa 0,0 l/m 5,1 km/h (1 Bft) SO 129 3 min 2,0 UV-I 412 W/m 13,9 C 18,6 C 9,7 km/h (2 Bft)
29.10.2022 12:54 18,6 C 23,9 C 72 % 1022,1 hPa 0,0 l/m 4,8 km/h (1 Bft) O-SO 120 3 min 2,0 UV-I 367 W/m 13,4 C 18,6 C 8,0 km/h (2 Bft)
29.10.2022 12:57 18,7 C 22,8 C 74 % 1022,1 hPa 0,0 l/m 2,3 km/h (1 Bft) O-SO 121 0 min 1,7 UV-I 260 W/m 14,0 C 18,7 C 4,8 km/h (1 Bft)
29.10.2022 13:00 18,6 C 22,2 C 74 % 1022,0 hPa 0,0 l/m 1,9 km/h (1 Bft) O-SO 121 0 min 1,6 UV-I 247 W/m 13,9 C 18,6 C 4,8 km/h (1 Bft)
29.10.2022 13:03 18,6 C 22,8 C 74 % 1021,9 hPa 0,0 l/m 3,3 km/h (1 Bft) SO 124 3 min 1,8 UV-I 308 W/m 13,9 C 18,6 C 6,4 km/h (2 Bft)
29.10.2022 13:06 18,7 C 22,8 C 75 % 1021,9 hPa 0,0 l/m 4,9 km/h (1 Bft) SO 124 0 min 1,7 UV-I 291 W/m 14,2 C 18,7 C 8,0 km/h (2 Bft)
29.10.2022 13:09 18,7 C 22,2 C 74 % 1021,8 hPa 0,0 l/m 4,4 km/h (1 Bft) SO 128 0 min 1,6 UV-I 277 W/m 14,0 C 18,7 C 8,0 km/h (2 Bft)
29.10.2022 13:12 18,7 C 21,7 C 73 % 1021,9 hPa 0,0 l/m 4,9 km/h (1 Bft) SO 146 0 min 1,5 UV-I 200 W/m 13,8 C 18,7 C 11,3 km/h (2 Bft)
29.10.2022 13:15 18,8 C 22,2 C 73 % 1021,8 hPa 0,0 l/m 5,1 km/h (1 Bft) SO 138 0 min 1,7 UV-I 295 W/m 13,9 C 18,8 C 8,0 km/h (2 Bft)
29.10.2022 13:18 18,9 C 23,3 C 73 % 1021,8 hPa 0,0 l/m 3,6 km/h (1 Bft) SO 129 0 min 1,7 UV-I 297 W/m 13,9 C 18,9 C 6,4 km/h (2 Bft)
29.10.2022 13:21 18,9 C 22,2 C 73 % 1021,8 hPa 0,0 l/m 5,2 km/h (1 Bft) SO 128 0 min 1,6 UV-I 247 W/m 13,9 C 18,9 C 8,0 km/h (2 Bft)
29.10.2022 13:24 19,0 C 21,7 C 72 % 1021,8 hPa 0,0 l/m 4,4 km/h (1 Bft) SO 138 0 min 1,5 UV-I 218 W/m 13,8 C 19,0 C 8,0 km/h (2 Bft)
29.10.2022 13:27 18,9 C 21,7 C 72 % 1021,7 hPa 0,0 l/m 5,5 km/h (1 Bft) S-SO 151 0 min 1,5 UV-I 228 W/m 13,7 C 18,9 C 8,0 km/h (2 Bft)
29.10.2022 13:30 19,0 C 21,7 C 71 % 1021,6 hPa 0,0 l/m 4,8 km/h (1 Bft) S-SO 150 0 min 1,5 UV-I 229 W/m 13,6 C 19,0 C 8,0 km/h (2 Bft)
29.10.2022 13:33 19,1 C 21,7 C 71 % 1021,6 hPa 0,0 l/m 3,9 km/h (1 Bft) S-SO 154 0 min 1,5 UV-I 239 W/m 13,7 C 19,1 C 4,8 km/h (1 Bft)
29.10.2022 13:36 19,1 C 21,1 C 70 % 1021,7 hPa 0,0 l/m 6,8 km/h (2 Bft) SO 144 0 min 1,5 UV-I 229 W/m 13,5 C 18,9 C 12,9 km/h (3 Bft)
29.10.2022 13:39 19,1 C 21,1 C 71 % 1021,5 hPa 0,0 l/m 5,0 km/h (1 Bft) SO 142 0 min 1,5 UV-I 228 W/m 13,7 C 19,1 C 8,0 km/h (2 Bft)
29.10.2022 13:42 19,1 C 21,1 C 71 % 1021,5 hPa 0,0 l/m 7,7 km/h (2 Bft) SO 132 0 min 1,5 UV-I 217 W/m 13,7 C 18,5 C 11,3 km/h (2 Bft)
29.10.2022 13:45 19,0 C 20,6 C 70 % 1021,6 hPa 0,0 l/m 10,3 km/h (2 Bft) S-SO 148 0 min 1,5 UV-I 219 W/m 13,4 C 17,4 C 16,1 km/h (3 Bft)
29.10.2022 13:48 19,1 C 20,6 C 70 % 1021,5 hPa 0,0 l/m 6,8 km/h (2 Bft) S 178 0 min 1,4 UV-I 214 W/m 13,5 C 18,9 C 11,3 km/h (2 Bft)
29.10.2022 13:51 19,0 C 20,6 C 70 % 1021,5 hPa 0,0 l/m 10,5 km/h (2 Bft) SO 142 0 min 1,4 UV-I 221 W/m 13,4 C 17,4 C 16,1 km/h (3 Bft)
29.10.2022 13:54 18,8 C 20,6 C 71 % 1021,6 hPa 0,0 l/m 12,1 km/h (2 Bft) SO 126 0 min 1,4 UV-I 222 W/m 13,4 C 16,6 C 19,3 km/h (3 Bft)
29.10.2022 13:57 18,6 C 20,0 C 71 % 1021,7 hPa 0,0 l/m 9,9 km/h (2 Bft) S-SO 150 0 min 1,4 UV-I 230 W/m 13,2 C 17,1 C 16,1 km/h (3 Bft)
29.10.2022 14:00 18,3 C 20,0 C 70 % 1021,7 hPa 0,0 l/m 12,0 km/h (2 Bft) SO 126 0 min 1,5 UV-I 233 W/m 12,7 C 16,1 C 19,3 km/h (3 Bft)
29.10.2022 14:03 18,3 C 20,0 C 70 % 1021,5 hPa 0,0 l/m 11,3 km/h (2 Bft) SO 128 0 min 1,5 UV-I 249 W/m 12,7 C 16,3 C 17,7 km/h (3 Bft)
29.10.2022 14:09 18,3 C 20,0 C 71 % 1021,5 hPa 0,0 l/m 6,8 km/h (2 Bft) SO 142 0 min 1,4 UV-I 228 W/m 12,9 C 18,1 C 16,1 km/h (3 Bft)
29.10.2022 14:12 18,4 C 20,0 C 71 % 1021,5 hPa 0,0 l/m 4,5 km/h (1 Bft) S-SO 161 0 min 1,3 UV-I 191 W/m 13,0 C 18,4 C 12,9 km/h (3 Bft)
29.10.2022 14:15 18,4 C 19,4 C 69 % 1021,6 hPa 0,0 l/m 8,5 km/h (2 Bft) S-SO 159 0 min 1,3 UV-I 182 W/m 12,6 C 17,5 C 16,1 km/h (3 Bft)
29.10.2022 14:18 18,4 C 19,4 C 69 % 1021,6 hPa 0,0 l/m 7,5 km/h (2 Bft) S-SO 149 0 min 1,3 UV-I 182 W/m 12,6 C 17,9 C 12,9 km/h (3 Bft)
29.10.2022 14:21 18,4 C 19,4 C 70 % 1021,4 hPa 0,0 l/m 6,3 km/h (2 Bft) S-SO 160 0 min 1,3 UV-I 184 W/m 12,8 C 18,4 C 11,3 km/h (2 Bft)
29.10.2022 14:24 18,5 C 19,4 C 69 % 1021,4 hPa 0,0 l/m 6,4 km/h (2 Bft) SO 146 0 min 1,3 UV-I 187 W/m 12,7 C 18,5 C 11,3 km/h (2 Bft)
29.10.2022 14:27 18,5 C 20,0 C 69 % 1021,3 hPa 0,0 l/m 5,8 km/h (2 Bft) SO 142 0 min 1,3 UV-I 187 W/m 12,7 C 18,5 C 11,3 km/h (2 Bft)
29.10.2022 14:30 18,5 C 20,0 C 69 % 1021,2 hPa 0,0 l/m 5,1 km/h (1 Bft) SO 140 0 min 1,2 UV-I 183 W/m 12,7 C 18,5 C 8,0 km/h (2 Bft)
29.10.2022 14:33 18,4 C 20,0 C 69 % 1021,2 hPa 0,0 l/m 3,1 km/h (1 Bft) O-SO 121 0 min 1,2 UV-I 178 W/m 12,6 C 18,4 C 8,0 km/h (2 Bft)
29.10.2022 14:36 18,4 C 19,4 C 69 % 1021,2 hPa 0,0 l/m 5,2 km/h (1 Bft) S-SO 148 0 min 1,2 UV-I 170 W/m 12,6 C 18,4 C 9,7 km/h (2 Bft)
29.10.2022 14:39 18,4 C 19,4 C 69 % 1021,3 hPa 0,0 l/m 5,2 km/h (1 Bft) S-SO 153 0 min 1,1 UV-I 160 W/m 12,6 C 18,4 C 9,7 km/h (2 Bft)
29.10.2022 14:42 18,4 C 18,9 C 69 % 1021,2 hPa 0,0 l/m 5,1 km/h (1 Bft) S-SO 152 0 min 1,1 UV-I 152 W/m 12,6 C 18,4 C 9,7 km/h (2 Bft)
29.10.2022 14:45 18,3 C 18,9 C 69 % 1021,3 hPa 0,0 l/m 4,3 km/h (1 Bft) SO 132 0 min 1,0 UV-I 150 W/m 12,5 C 18,3 C 8,0 km/h (2 Bft)
29.10.2022 14:48 18,3 C 19,4 C 70 % 1021,2 hPa 0,0 l/m 3,4 km/h (1 Bft) SO 132 0 min 1,0 UV-I 156 W/m 12,7 C 18,3 C 8,0 km/h (2 Bft)
29.10.2022 14:51 18,2 C 18,9 C 70 % 1021,0 hPa 0,0 l/m 6,8 km/h (2 Bft) O-SO 121 0 min 1,0 UV-I 158 W/m 12,6 C 18,0 C 11,3 km/h (2 Bft)
29.10.2022 14:54 18,1 C 18,9 C 69 % 1021,0 hPa 0,2 l/m 5,7 km/h (1 Bft) SO 127 0 min 1,0 UV-I 156 W/m 12,3 C 18,1 C 12,9 km/h (3 Bft)
29.10.2022 14:57 18,1 C 18,3 C 68 % 1020,9 hPa 0,0 l/m 6,6 km/h (2 Bft) SO 141 0 min 1,0 UV-I 161 W/m 12,1 C 18,0 C 12,9 km/h (3 Bft)
29.10.2022 15:00 18,1 C 18,3 C 67 % 1021,0 hPa 0,0 l/m 8,2 km/h (2 Bft) SO 126 0 min 1,0 UV-I 171 W/m 11,9 C 17,3 C 14,5 km/h (3 Bft)
29.10.2022 15:03 18,2 C 18,3 C 66 % 1020,9 hPa 0,0 l/m 9,4 km/h (2 Bft) SO 137 0 min 1,0 UV-I 180 W/m 11,7 C 16,9 C 14,5 km/h (3 Bft)
29.10.2022 15:06 18,2 C 18,9 C 66 % 1020,8 hPa 0,0 l/m 7,5 km/h (2 Bft) S-SO 148 0 min 1,1 UV-I 195 W/m 11,7 C 17,7 C 11,3 km/h (2 Bft)
29.10.2022 15:09 18,2 C 19,4 C 66 % 1020,9 hPa 0,0 l/m 7,8 km/h (2 Bft) S 187 0 min 1,1 UV-I 207 W/m 11,7 C 17,6 C 14,5 km/h (3 Bft)
29.10.2022 15:12 18,2 C 19,4 C 65 % 1020,9 hPa 0,0 l/m 7,1 km/h (2 Bft) S 170 0 min 1,2 UV-I 229 W/m 11,5 C 17,9 C 11,3 km/h (2 Bft)
29.10.2022 15:15 18,3 C 20,0 C 66 % 1020,8 hPa 0,0 l/m 6,4 km/h (2 Bft) SO 142 0 min 1,1 UV-I 218 W/m 11,8 C 18,3 C 14,5 km/h (3 Bft)
29.10.2022 15:18 18,4 C 20,6 C 66 % 1020,8 hPa 0,0 l/m 4,6 km/h (1 Bft) S-SO 150 0 min 1,2 UV-I 219 W/m 11,9 C 18,4 C 9,7 km/h (2 Bft)
29.10.2022 15:21 18,4 C 20,0 C 65 % 1020,8 hPa 0,0 l/m 4,5 km/h (1 Bft) S-SO 148 0 min 1,1 UV-I 197 W/m 11,7 C 18,4 C 11,3 km/h (2 Bft)
29.10.2022 15:24 18,4 C 20,0 C 64 % 1020,8 hPa 0,0 l/m 4,5 km/h (1 Bft) S-SO 150 0 min 1,0 UV-I 185 W/m 11,5 C 18,4 C 11,3 km/h (2 Bft)
29.10.2022 15:27 18,4 C 18,9 C 64 % 1020,8 hPa 0,0 l/m 8,6 km/h (2 Bft) S-SO 167 0 min 1,0 UV-I 171 W/m 11,5 C 17,4 C 16,1 km/h (3 Bft)
29.10.2022 15:30 18,4 C 18,9 C 63 % 1020,7 hPa 0,0 l/m 7,5 km/h (2 Bft) S-SO 155 0 min 0,9 UV-I 160 W/m 11,2 C 17,9 C 12,9 km/h (3 Bft)
29.10.2022 15:33 18,3 C 18,9 C 63 % 1020,8 hPa 0,0 l/m 7,5 km/h (2 Bft) S 186 0 min 0,9 UV-I 155 W/m 11,1 C 17,8 C 17,7 km/h (3 Bft)
29.10.2022 15:36 18,3 C 18,3 C 62 % 1020,9 hPa 0,0 l/m 10,8 km/h (2 Bft) SO 135 0 min 0,9 UV-I 150 W/m 10,9 C 16,5 C 16,1 km/h (3 Bft)
29.10.2022 15:39 18,2 C 18,3 C 62 % 1020,8 hPa 0,0 l/m 13,2 km/h (3 Bft) S-SO 161 0 min 0,8 UV-I 147 W/m 10,8 C 15,6 C 17,7 km/h (3 Bft)
29.10.2022 15:42 18,2 C 18,3 C 62 % 1020,8 hPa 0,0 l/m 12,8 km/h (3 Bft) SO 144 0 min 0,8 UV-I 150 W/m 10,8 C 15,7 C 19,3 km/h (3 Bft)
29.10.2022 15:45 18,2 C 18,3 C 62 % 1020,7 hPa 0,0 l/m 7,7 km/h (2 Bft) S-SO 167 0 min 0,8 UV-I 156 W/m 10,8 C 17,6 C 16,1 km/h (3 Bft)
29.10.2022 15:48 18,2 C 18,3 C 63 % 1020,6 hPa 0,0 l/m 9,8 km/h (2 Bft) S-SO 150 0 min 0,8 UV-I 153 W/m 11,0 C 16,7 C 20,9 km/h (4 Bft)
29.10.2022 15:51 18,2 C 18,3 C 62 % 1020,7 hPa 0,0 l/m 11,2 km/h (2 Bft) SO 132 0 min 0,8 UV-I 147 W/m 10,8 C 16,2 C 16,1 km/h (3 Bft)
29.10.2022 15:54 18,2 C 18,3 C 62 % 1020,8 hPa 0,0 l/m 9,9 km/h (2 Bft) S-SO 161 0 min 0,8 UV-I 145 W/m 10,8 C 16,7 C 17,7 km/h (3 Bft)
29.10.2022 15:57 18,2 C 18,3 C 65 % 1020,7 hPa 0,0 l/m 4,5 km/h (1 Bft) S 180 0 min 0,8 UV-I 144 W/m 11,5 C 18,2 C 9,7 km/h (2 Bft)
29.10.2022 16:00 18,2 C 18,3 C 64 % 1020,6 hPa 0,0 l/m 4,9 km/h (1 Bft) S 186 0 min 0,7 UV-I 137 W/m 11,3 C 18,2 C 8,0 km/h (2 Bft)
29.10.2022 16:03 18,2 C 18,3 C 64 % 1020,7 hPa 0,0 l/m 4,8 km/h (1 Bft) S-SW 198 0 min 0,7 UV-I 138 W/m 11,3 C 18,2 C 8,0 km/h (2 Bft)
29.10.2022 16:09 18,2 C 18,3 C 63 % 1020,7 hPa 0,0 l/m 7,6 km/h (2 Bft) S 170 0 min 0,7 UV-I 125 W/m 11,0 C 17,6 C 16,1 km/h (3 Bft)
29.10.2022 16:12 18,2 C 18,3 C 63 % 1020,7 hPa 0,0 l/m 7,8 km/h (2 Bft) S 176 0 min 0,6 UV-I 113 W/m 11,0 C 17,6 C 11,3 km/h (2 Bft)
29.10.2022 16:15 18,2 C 18,3 C 64 % 1020,6 hPa 0,0 l/m 5,7 km/h (1 Bft) S-SO 160 0 min 0,6 UV-I 113 W/m 11,3 C 18,2 C 11,3 km/h (2 Bft)
29.10.2022 16:18 18,2 C 18,3 C 64 % 1020,6 hPa 0,0 l/m 5,9 km/h (2 Bft) S-SO 156 0 min 0,6 UV-I 113 W/m 11,3 C 18,2 C 9,7 km/h (2 Bft)
29.10.2022 16:21 18,2 C 17,8 C 64 % 1020,6 hPa 0,0 l/m 7,0 km/h (2 Bft) S-SO 157 0 min 0,5 UV-I 104 W/m 11,3 C 17,9 C 12,9 km/h (3 Bft)
29.10.2022 16:24 18,2 C 17,8 C 64 % 1020,6 hPa 0,0 l/m 5,5 km/h (1 Bft) S-SO 156 0 min 0,5 UV-I 96 W/m 11,3 C 18,2 C 9,7 km/h (2 Bft)
29.10.2022 16:27 18,2 C 17,8 C 64 % 1020,6 hPa 0,0 l/m 8,9 km/h (2 Bft) S 172 0 min 0,5 UV-I 95 W/m 11,3 C 17,1 C 14,5 km/h (3 Bft)
29.10.2022 16:30 18,2 C 17,8 C 64 % 1020,7 hPa 0,0 l/m 7,0 km/h (2 Bft) S 170 0 min 0,5 UV-I 95 W/m 11,3 C 17,9 C 14,5 km/h (3 Bft)
29.10.2022 16:33 18,1 C 17,8 C 64 % 1020,6 hPa 0,0 l/m 7,3 km/h (2 Bft) S-SO 168 0 min 0,2 UV-I 90 W/m 11,2 C 17,7 C 9,7 km/h (2 Bft)
29.10.2022 16:36 18,1 C 17,8 C 65 % 1020,5 hPa 0,0 l/m 5,7 km/h (1 Bft) S-SO 152 0 min 0,0 UV-I 82 W/m 11,4 C 18,1 C 9,7 km/h (2 Bft)
29.10.2022 16:39 18,0 C 17,8 C 65 % 1020,6 hPa 0,0 l/m 5,1 km/h (1 Bft) S 180 0 min 0,0 UV-I 77 W/m 11,3 C 18,0 C 8,0 km/h (2 Bft)
29.10.2022 16:42 17,9 C 17,2 C 65 % 1020,6 hPa 0,0 l/m 4,8 km/h (1 Bft) S-SW 209 0 min 0,0 UV-I 75 W/m 11,2 C 17,9 C 14,5 km/h (3 Bft)
29.10.2022 16:45 17,8 C 17,2 C 65 % 1020,6 hPa 0,0 l/m 5,3 km/h (1 Bft) S-SO 168 0 min 0,0 UV-I 71 W/m 11,1 C 17,8 C 9,7 km/h (2 Bft)
29.10.2022 16:48 17,8 C 17,2 C 65 % 1020,5 hPa 0,0 l/m 4,8 km/h (1 Bft) S 182 0 min 0,0 UV-I 67 W/m 11,1 C 17,8 C 11,3 km/h (2 Bft)
29.10.2022 16:51 17,8 C 17,2 C 65 % 1020,6 hPa 0,0 l/m 4,5 km/h (1 Bft) S-SO 152 0 min 0,0 UV-I 64 W/m 11,1 C 17,8 C 9,7 km/h (2 Bft)
29.10.2022 16:54 17,8 C 17,2 C 66 % 1020,6 hPa 0,0 l/m 6,1 km/h (2 Bft) SO 145 0 min 0,0 UV-I 63 W/m 11,4 C 17,8 C 11,3 km/h (2 Bft)
29.10.2022 16:57 17,7 C 17,2 C 66 % 1020,7 hPa 0,0 l/m 5,0 km/h (1 Bft) SO 146 0 min 0,0 UV-I 63 W/m 11,3 C 17,7 C 8,0 km/h (2 Bft)
29.10.2022 17:00 17,6 C 16,7 C 66 % 1020,6 hPa 0,0 l/m 4,1 km/h (1 Bft) S-SO 149 0 min 0,0 UV-I 63 W/m 11,2 C 17,6 C 6,4 km/h (2 Bft)
29.10.2022 17:03 17,5 C 16,7 C 66 % 1020,6 hPa 0,0 l/m 4,2 km/h (1 Bft) S-SO 148 0 min 0,0 UV-I 62 W/m 11,1 C 17,5 C 6,4 km/h (2 Bft)
29.10.2022 17:06 17,5 C 16,7 C 66 % 1020,5 hPa 0,0 l/m 3,7 km/h (1 Bft) S-SO 149 0 min 0,0 UV-I 59 W/m 11,1 C 17,5 C 4,8 km/h (1 Bft)
29.10.2022 17:09 17,4 C 16,7 C 66 % 1020,6 hPa 0,0 l/m 5,2 km/h (1 Bft) S-SO 153 0 min 0,0 UV-I 53 W/m 11,0 C 17,4 C 9,7 km/h (2 Bft)
29.10.2022 17:12 17,4 C 16,7 C 67 % 1020,5 hPa 0,0 l/m 5,0 km/h (1 Bft) S-SO 150 0 min 0,0 UV-I 48 W/m 11,2 C 17,4 C 8,0 km/h (2 Bft)
29.10.2022 17:15 17,3 C 16,7 C 67 % 1020,6 hPa 0,0 l/m 4,7 km/h (1 Bft) S-SO 155 0 min 0,0 UV-I 44 W/m 11,1 C 17,3 C 8,0 km/h (2 Bft)
29.10.2022 17:18 17,2 C 16,1 C 67 % 1020,5 hPa 0,0 l/m 5,0 km/h (1 Bft) S-SO 152 0 min 0,0 UV-I 40 W/m 11,0 C 17,2 C 9,7 km/h (2 Bft)
29.10.2022 17:21 17,2 C 16,1 C 67 % 1020,5 hPa 0,0 l/m 7,5 km/h (2 Bft) SO 144 0 min 0,0 UV-I 38 W/m 11,0 C 16,7 C 11,3 km/h (2 Bft)
29.10.2022 17:24 17,1 C 16,1 C 68 % 1020,5 hPa 0,0 l/m 6,4 km/h (2 Bft) S-SO 157 0 min 0,0 UV-I 37 W/m 11,1 C 17,1 C 12,9 km/h (3 Bft)
29.10.2022 17:27 17,1 C 16,1 C 68 % 1020,4 hPa 0,0 l/m 3,9 km/h (1 Bft) SO 144 0 min 0,0 UV-I 35 W/m 11,1 C 17,1 C 6,4 km/h (2 Bft)
29.10.2022 17:30 17,1 C 16,1 C 68 % 1020,4 hPa 0,0 l/m 2,9 km/h (1 Bft) SO 144 0 min 0,0 UV-I 33 W/m 11,1 C 17,1 C 4,8 km/h (1 Bft)
29.10.2022 17:33 16,9 C 15,6 C 69 % 1020,5 hPa 0,0 l/m 3,8 km/h (1 Bft) S-SO 158 0 min 0,0 UV-I 31 W/m 11,2 C 16,9 C 4,8 km/h (1 Bft)
29.10.2022 17:36 16,8 C 15,6 C 69 % 1020,5 hPa 0,0 l/m 5,1 km/h (1 Bft) S-SW 192 0 min 0,0 UV-I 30 W/m 11,1 C 16,8 C 8,0 km/h (2 Bft)
29.10.2022 17:39 16,8 C 15,6 C 69 % 1020,6 hPa 0,0 l/m 7,2 km/h (2 Bft) S-SO 160 0 min 0,0 UV-I 30 W/m 11,1 C 16,4 C 12,9 km/h (3 Bft)
29.10.2022 17:42 16,8 C 15,6 C 68 % 1020,5 hPa 0,0 l/m 7,4 km/h (2 Bft) S-SO 166 0 min 0,0 UV-I 31 W/m 10,9 C 16,3 C 14,5 km/h (3 Bft)
29.10.2022 17:45 16,8 C 16,1 C 69 % 1020,5 hPa 0,0 l/m 6,5 km/h (2 Bft) S-SO 156 0 min 0,0 UV-I 32 W/m 11,1 C 16,8 C 9,7 km/h (2 Bft)
29.10.2022 17:48 16,7 C 15,6 C 69 % 1020,4 hPa 0,0 l/m 5,1 km/h (1 Bft) S-SO 157 0 min 0,0 UV-I 27 W/m 11,0 C 16,7 C 8,0 km/h (2 Bft)
29.10.2022 17:51 16,7 C 15,6 C 69 % 1020,4 hPa 0,0 l/m 6,5 km/h (2 Bft) SO 126 0 min 0,0 UV-I 24 W/m 11,0 C 16,7 C 11,3 km/h (2 Bft)
29.10.2022 17:54 16,7 C 15,6 C 68 % 1020,4 hPa 0,0 l/m 9,4 km/h (2 Bft) S-SO 159 0 min 0,0 UV-I 20 W/m 10,8 C 15,2 C 16,1 km/h (3 Bft)
29.10.2022 17:57 16,7 C 15,6 C 68 % 1020,4 hPa 0,0 l/m 8,4 km/h (2 Bft) SO 138 0 min 0,0 UV-I 17 W/m 10,8 C 15,7 C 14,5 km/h (3 Bft)
29.10.2022 18:00 16,7 C 15,6 C 69 % 1020,4 hPa 0,0 l/m 8,4 km/h (2 Bft) S-SO 155 0 min 0,0 UV-I 14 W/m 11,0 C 15,7 C 16,1 km/h (3 Bft)
29.10.2022 18:03 16,7 C 15,6 C 69 % 1020,4 hPa 0,0 l/m 9,5 km/h (2 Bft) SO 138 0 min 0,0 UV-I 11 W/m 11,0 C 15,2 C 14,5 km/h (3 Bft)
29.10.2022 18:06 16,7 C 15,6 C 69 % 1020,4 hPa 0,0 l/m 9,3 km/h (2 Bft) S-SO 148 0 min 0,0 UV-I 8 W/m 11,0 C 15,3 C 12,9 km/h (3 Bft)
29.10.2022 18:09 16,6 C 15,6 C 69 % 1020,3 hPa 0,0 l/m 8,6 km/h (2 Bft) S-SO 159 0 min 0,0 UV-I 5 W/m 10,9 C 15,5 C 14,5 km/h (3 Bft)
29.10.2022 18:12 16,6 C 15,0 C 69 % 1020,5 hPa 0,0 l/m 9,0 km/h (2 Bft) S-SO 168 0 min 0,0 UV-I 1 W/m 10,9 C 15,3 C 16,1 km/h (3 Bft)
29.10.2022 18:15 16,4 C 15,0 C 69 % 1020,4 hPa 0,0 l/m 7,4 km/h (2 Bft) S 178 0 min 0,0 UV-I 0 W/m 10,7 C 15,9 C 12,9 km/h (3 Bft)
29.10.2022 18:18 16,4 C 15,0 C 70 % 1020,5 hPa 0,0 l/m 6,3 km/h (2 Bft) S-SO 161 0 min 0,0 UV-I 0 W/m 10,9 C 16,4 C 9,7 km/h (2 Bft)
29.10.2022 18:21 16,3 C 14,4 C 70 % 1020,5 hPa 0,0 l/m 4,2 km/h (1 Bft) SO 140 0 min 0,0 UV-I 0 W/m 10,8 C 16,3 C 9,7 km/h (2 Bft)
29.10.2022 18:24 16,3 C 14,4 C 70 % 1020,3 hPa 0,0 l/m 6,1 km/h (2 Bft) SO 144 0 min 0,0 UV-I 0 W/m 10,8 C 16,3 C 9,7 km/h (2 Bft)
29.10.2022 18:27 16,3 C 15,0 C 69 % 1020,4 hPa 0,0 l/m 8,3 km/h (2 Bft) SO 138 0 min 0,0 UV-I 0 W/m 10,6 C 15,3 C 14,5 km/h (3 Bft)
29.10.2022 18:30 16,3 C 15,0 C 69 % 1020,2 hPa 0,0 l/m 6,1 km/h (2 Bft) S-SO 158 0 min 0,0 UV-I 0 W/m 10,6 C 16,3 C 11,3 km/h (2 Bft)
29.10.2022 18:33 16,2 C 14,4 C 70 % 1020,3 hPa 0,0 l/m 5,3 km/h (1 Bft) SO 134 0 min 0,0 UV-I 0 W/m 10,7 C 16,2 C 11,3 km/h (2 Bft)
29.10.2022 18:36 16,2 C 14,4 C 70 % 1020,3 hPa 0,0 l/m 8,1 km/h (2 Bft) S-SO 158 0 min 0,0 UV-I 0 W/m 10,7 C 15,3 C 12,9 km/h (3 Bft)
29.10.2022 18:39 16,2 C 14,4 C 70 % 1020,3 hPa 0,0 l/m 6,1 km/h (2 Bft) SO 144 0 min 0,0 UV-I 0 W/m 10,7 C 16,2 C 11,3 km/h (2 Bft)
29.10.2022 18:42 16,2 C 14,4 C 70 % 1020,3 hPa 0,0 l/m 5,9 km/h (2 Bft) SO 141 0 min 0,0 UV-I 0 W/m 10,7 C 16,2 C 11,3 km/h (2 Bft)
29.10.2022 18:45 16,2 C 14,4 C 69 % 1020,3 hPa 0,0 l/m 7,1 km/h (2 Bft) S-SO 147 0 min 0,0 UV-I 0 W/m 10,5 C 15,8 C 12,9 km/h (3 Bft)
29.10.2022 18:48 16,2 C 14,4 C 69 % 1020,2 hPa 0,0 l/m 5,9 km/h (2 Bft) S-SO 153 0 min 0,0 UV-I 0 W/m 10,5 C 16,2 C 11,3 km/h (2 Bft)
29.10.2022 18:51 16,3 C 14,4 C 69 % 1020,2 hPa 0,0 l/m 6,9 km/h (2 Bft) SO 139 0 min 0,0 UV-I 0 W/m 10,6 C 16,0 C 12,9 km/h (3 Bft)
29.10.2022 18:54 16,2 C 14,4 C 69 % 1020,1 hPa 0,0 l/m 5,1 km/h (1 Bft) SO 143 0 min 0,0 UV-I 0 W/m 10,5 C 16,2 C 8,0 km/h (2 Bft)
29.10.2022 18:57 16,1 C 13,9 C 69 % 1020,0 hPa 0,0 l/m 6,0 km/h (2 Bft) SO 146 0 min 0,0 UV-I 0 W/m 10,4 C 16,1 C 12,9 km/h (3 Bft)
29.10.2022 19:00 16,1 C 13,9 C 69 % 1019,9 hPa 0,0 l/m 8,0 km/h (2 Bft) SO 136 0 min 0,0 UV-I 0 W/m 10,4 C 15,3 C 12,9 km/h (3 Bft)
29.10.2022 19:03 16,3 C 14,4 C 68 % 1020,0 hPa 0,0 l/m 9,9 km/h (2 Bft) S-SO 156 0 min 0,0 UV-I 0 W/m 10,4 C 14,6 C 16,1 km/h (3 Bft)
29.10.2022 19:06 16,4 C 15,0 C 68 % 1020,1 hPa 0,0 l/m 9,1 km/h (2 Bft) SO 134 0 min 0,0 UV-I 0 W/m 10,5 C 15,1 C 14,5 km/h (3 Bft)
29.10.2022 19:09 16,4 C 15,0 C 68 % 1020,1 hPa 0,0 l/m 8,2 km/h (2 Bft) S-SO 155 0 min 0,0 UV-I 0 W/m 10,5 C 15,5 C 14,5 km/h (3 Bft)
29.10.2022 19:12 16,4 C 15,0 C 67 % 1020,1 hPa 0,0 l/m 7,4 km/h (2 Bft) SO 146 0 min 0,0 UV-I 0 W/m 10,3 C 15,9 C 12,9 km/h (3 Bft)
29.10.2022 19:15 16,4 C 15,0 C 67 % 1020,0 hPa 0,0 l/m 8,3 km/h (2 Bft) S-SO 155 0 min 0,0 UV-I 0 W/m 10,3 C 15,4 C 12,9 km/h (3 Bft)
29.10.2022 19:18 16,4 C 15,0 C 67 % 1020,1 hPa 0,0 l/m 8,5 km/h (2 Bft) S-SO 154 0 min 0,0 UV-I 0 W/m 10,3 C 15,3 C 12,9 km/h (3 Bft)
29.10.2022 19:21 16,4 C 15,0 C 67 % 1020,2 hPa 0,0 l/m 9,4 km/h (2 Bft) S-SO 168 0 min 0,0 UV-I 0 W/m 10,3 C 14,9 C 16,1 km/h (3 Bft)
29.10.2022 19:24 16,4 C 14,4 C 68 % 1020,2 hPa 0,0 l/m 7,9 km/h (2 Bft) S-SO 165 0 min 0,0 UV-I 0 W/m 10,5 C 15,6 C 14,5 km/h (3 Bft)
29.10.2022 19:27 16,4 C 14,4 C 67 % 1020,2 hPa 0,0 l/m 8,8 km/h (2 Bft) S-SO 165 0 min 0,0 UV-I 0 W/m 10,3 C 15,2 C 14,5 km/h (3 Bft)
29.10.2022 19:30 16,5 C 14,4 C 67 % 1020,2 hPa 0,0 l/m 6,9 km/h (2 Bft) S-SO 152 0 min 0,0 UV-I 0 W/m 10,4 C 16,2 C 12,9 km/h (3 Bft)
29.10.2022 19:33 16,4 C 13,9 C 67 % 1020,3 hPa 0,0 l/m 6,3 km/h (2 Bft) S-SW 193 0 min 0,0 UV-I 0 W/m 10,3 C 16,4 C 11,3 km/h (2 Bft)
29.10.2022 19:36 16,1 C 13,9 C 68 % 1020,3 hPa 0,0 l/m 5,8 km/h (2 Bft) S-SW 209 0 min 0,0 UV-I 0 W/m 10,2 C 16,1 C 8,0 km/h (2 Bft)
29.10.2022 19:39 15,8 C 13,3 C 69 % 1020,3 hPa 0,0 l/m 5,9 km/h (2 Bft) S-SW 198 0 min 0,0 UV-I 0 W/m 10,1 C 15,8 C 8,0 km/h (2 Bft)
29.10.2022 19:42 15,6 C 13,3 C 69 % 1020,3 hPa 0,0 l/m 5,4 km/h (1 Bft) S-SW 192 0 min 0,0 UV-I 0 W/m 9,9 C 15,6 C 6,4 km/h (2 Bft)
29.10.2022 19:45 15,4 C 12,8 C 70 % 1020,3 hPa 0,0 l/m 5,3 km/h (1 Bft) S 181 0 min 0,0 UV-I 0 W/m 10,0 C 15,4 C 8,0 km/h (2 Bft)
29.10.2022 19:48 15,4 C 12,8 C 70 % 1020,3 hPa 0,0 l/m 4,9 km/h (1 Bft) S-SO 161 0 min 0,0 UV-I 0 W/m 10,0 C 15,4 C 8,0 km/h (2 Bft)
29.10.2022 19:51 15,3 C 12,8 C 70 % 1020,5 hPa 0,0 l/m 7,0 km/h (2 Bft) S-SO 161 0 min 0,0 UV-I 0 W/m 9,9 C 15,0 C 9,7 km/h (2 Bft)
29.10.2022 19:54 15,2 C 12,2 C 70 % 1020,3 hPa 0,0 l/m 5,5 km/h (1 Bft) S-SO 157 0 min 0,0 UV-I 0 W/m 9,8 C 15,2 C 8,0 km/h (2 Bft)
29.10.2022 19:57 15,2 C 12,2 C 71 % 1020,3 hPa 0,0 l/m 6,0 km/h (2 Bft) S-SO 153 0 min 0,0 UV-I 0 W/m 10,0 C 15,2 C 9,7 km/h (2 Bft)
29.10.2022 20:00 15,4 C 13,3 C 70 % 1020,4 hPa 0,0 l/m 8,5 km/h (2 Bft) S-SO 161 0 min 0,0 UV-I 0 W/m 10,0 C 14,3 C 12,9 km/h (3 Bft)
29.10.2022 20:03 15,8 C 13,9 C 69 % 1020,3 hPa 0,0 l/m 8,7 km/h (2 Bft) SO 140 0 min 0,0 UV-I 0 W/m 10,1 C 14,6 C 14,5 km/h (3 Bft)
29.10.2022 20:06 16,0 C 13,9 C 68 % 1020,4 hPa 0,0 l/m 7,0 km/h (2 Bft) S-SO 153 0 min 0,0 UV-I 0 W/m 10,1 C 15,7 C 12,9 km/h (3 Bft)
29.10.2022 20:09 16,2 C 14,4 C 68 % 1020,4 hPa 0,0 l/m 9,3 km/h (2 Bft) S-SO 163 0 min 0,0 UV-I 0 W/m 10,3 C 14,7 C 16,1 km/h (3 Bft)
29.10.2022 20:12 16,3 C 14,4 C 68 % 1020,4 hPa 0,0 l/m 10,2 km/h (2 Bft) S-SW 193 0 min 0,0 UV-I 0 W/m 10,4 C 14,5 C 16,1 km/h (3 Bft)
29.10.2022 20:15 16,3 C 14,4 C 68 % 1020,3 hPa 0,0 l/m 9,3 km/h (2 Bft) S 181 0 min 0,0 UV-I 0 W/m 10,4 C 14,9 C 17,7 km/h (3 Bft)
29.10.2022 20:18 16,3 C 14,4 C 67 % 1020,3 hPa 0,0 l/m 9,9 km/h (2 Bft) S 179 0 min 0,0 UV-I 0 W/m 10,2 C 14,6 C 14,5 km/h (3 Bft)
29.10.2022 20:21 16,4 C 15,0 C 67 % 1020,4 hPa 0,0 l/m 11,6 km/h (2 Bft) S-SO 159 0 min 0,0 UV-I 0 W/m 10,3 C 14,0 C 19,3 km/h (3 Bft)
29.10.2022 20:24 16,6 C 15,0 C 66 % 1020,4 hPa 0,0 l/m 11,5 km/h (2 Bft) S-SO 154 0 min 0,0 UV-I 0 W/m 10,2 C 14,3 C 17,7 km/h (3 Bft)
29.10.2022 20:27 16,4 C 14,4 C 66 % 1020,3 hPa 0,0 l/m 4,7 km/h (1 Bft) S-SO 153 0 min 0,0 UV-I 0 W/m 10,0 C 16,4 C 9,7 km/h (2 Bft)
29.10.2022 20:30 16,4 C 14,4 C 66 % 1020,3 hPa 0,0 l/m 7,3 km/h (2 Bft) S-SO 148 0 min 0,0 UV-I 0 W/m 10,0 C 15,9 C 11,3 km/h (2 Bft)
29.10.2022 20:33 16,4 C 14,4 C 66 % 1020,3 hPa 0,0 l/m 9,3 km/h (2 Bft) S-SO 153 0 min 0,0 UV-I 0 W/m 10,0 C 15,0 C 17,7 km/h (3 Bft)
29.10.2022 20:36 16,6 C 15,0 C 66 % 1020,3 hPa 0,0 l/m 7,8 km/h (2 Bft) S 188 0 min 0,0 UV-I 0 W/m 10,2 C 15,9 C 12,9 km/h (3 Bft)
29.10.2022 20:39 16,6 C 13,9 C 65 % 1020,4 hPa 0,0 l/m 5,2 km/h (1 Bft) S-SO 165 0 min 0,0 UV-I 0 W/m 10,0 C 16,6 C 8,0 km/h (2 Bft)
29.10.2022 20:42 16,4 C 13,3 C 66 % 1020,4 hPa 0,0 l/m 5,1 km/h (1 Bft) S 173 0 min 0,0 UV-I 0 W/m 10,0 C 16,4 C 9,7 km/h (2 Bft)
29.10.2022 20:45 16,3 C 13,3 C 66 % 1020,4 hPa 0,0 l/m 4,2 km/h (1 Bft) S 181 0 min 0,0 UV-I 0 W/m 9,9 C 16,3 C 8,0 km/h (2 Bft)
29.10.2022 20:48 16,2 C 13,3 C 66 % 1020,5 hPa 0,0 l/m 4,8 km/h (1 Bft) S 182 0 min 0,0 UV-I 0 W/m 9,8 C 16,2 C 6,4 km/h (2 Bft)
29.10.2022 20:51 16,0 C 12,8 C 66 % 1020,4 hPa 0,0 l/m 3,8 km/h (1 Bft) S 183 0 min 0,0 UV-I 0 W/m 9,7 C 16,0 C 6,4 km/h (2 Bft)
29.10.2022 20:54 15,9 C 11,7 C 67 % 1020,4 hPa 0,0 l/m 1,9 km/h (1 Bft) S 183 0 min 0,0 UV-I 0 W/m 9,8 C 15,9 C 3,2 km/h (1 Bft)
29.10.2022 20:57 15,7 C 12,2 C 67 % 1020,5 hPa 0,0 l/m 1,9 km/h (1 Bft) S 183 0 min 0,0 UV-I 0 W/m 9,6 C 15,7 C 3,2 km/h (1 Bft)
29.10.2022 21:00 15,6 C 12,2 C 68 % 1020,4 hPa 0,0 l/m 1,3 km/h (1 Bft) S 183 0 min 0,0 UV-I 0 W/m 9,7 C 15,6 C 3,2 km/h (1 Bft)
29.10.2022 21:03 15,4 C 11,7 C 68 % 1020,4 hPa 0,0 l/m 1,9 km/h (1 Bft) S 183 0 min 0,0 UV-I 0 W/m 9,5 C 15,4 C 3,2 km/h (1 Bft)
29.10.2022 21:06 15,4 C 11,7 C 68 % 1020,4 hPa 0,0 l/m 1,9 km/h (1 Bft) S 183 0 min 0,0 UV-I 0 W/m 9,5 C 15,4 C 3,2 km/h (1 Bft)
29.10.2022 21:09 15,3 C 11,1 C 68 % 1020,4 hPa 0,0 l/m 2,1 km/h (1 Bft) S 183 0 min 0,0 UV-I 0 W/m 9,4 C 15,3 C 3,2 km/h (1 Bft)
29.10.2022 21:12 15,2 C 11,1 C 69 % 1020,4 hPa 0,0 l/m 2,3 km/h (1 Bft) S 184 0 min 0,0 UV-I 0 W/m 9,6 C 15,2 C 4,8 km/h (1 Bft)
29.10.2022 21:15 15,0 C 10,6 C 69 % 1020,4 hPa 0,0 l/m 2,4 km/h (1 Bft) S 184 0 min 0,0 UV-I 0 W/m 9,4 C 15,0 C 3,2 km/h (1 Bft)
29.10.2022 21:18 14,8 C 10,6 C 70 % 1020,4 hPa 0,0 l/m 2,7 km/h (1 Bft) S 184 0 min 0,0 UV-I 0 W/m 9,4 C 14,8 C 3,2 km/h (1 Bft)
29.10.2022 21:21 14,8 C 10,6 C 70 % 1020,4 hPa 0,0 l/m 2,2 km/h (1 Bft) S 184 0 min 0,0 UV-I 0 W/m 9,4 C 14,8 C 3,2 km/h (1 Bft)
29.10.2022 21:24 14,7 C 10,6 C 70 % 1020,3 hPa 0,0 l/m 0,8 km/h (0 Bft) S 184 0 min 0,0 UV-I 0 W/m 9,3 C 14,7 C 3,2 km/h (1 Bft)
29.10.2022 21:27 14,6 C 10,6 C 71 % 1020,3 hPa 0,0 l/m 0,4 km/h (0 Bft) S 184 0 min 0,0 UV-I 0 W/m 9,4 C 14,6 C 1,6 km/h (1 Bft)
29.10.2022 21:30 14,4 C 10,6 C 71 % 1020,1 hPa 0,0 l/m 0,0 km/h (0 Bft) S 184 0 min 0,0 UV-I 0 W/m 9,2 C 14,4 C 1,6 km/h (1 Bft)
29.10.2022 21:33 14,3 C 10,6 C 72 % 1020,1 hPa 0,0 l/m 0,8 km/h (0 Bft) S 184 0 min 0,0 UV-I 0 W/m 9,3 C 14,3 C 1,6 km/h (1 Bft)
29.10.2022 21:36 14,1 C 10,0 C 72 % 1020,2 hPa 0,0 l/m 1,0 km/h (0 Bft) S 184 0 min 0,0 UV-I 0 W/m 9,1 C 14,1 C 1,6 km/h (1 Bft)
29.10.2022 21:39 13,7 C 10,0 C 73 % 1020,1 hPa 0,0 l/m 0,7 km/h (0 Bft) S 184 0 min 0,0 UV-I 0 W/m 8,9 C 13,7 C 1,6 km/h (1 Bft)
29.10.2022 21:42 13,5 C 9,4 C 74 % 1020,3 hPa 0,0 l/m 1,3 km/h (1 Bft) S 184 0 min 0,0 UV-I 0 W/m 9,0 C 13,5 C 3,2 km/h (1 Bft)
29.10.2022 21:45 13,5 C 9,4 C 74 % 1020,3 hPa 0,0 l/m 1,5 km/h (1 Bft) S 184 0 min 0,0 UV-I 0 W/m 9,0 C 13,5 C 3,2 km/h (1 Bft)
29.10.2022 21:48 13,5 C 9,4 C 74 % 1020,2 hPa 0,0 l/m 0,5 km/h (0 Bft) S 184 0 min 0,0 UV-I 0 W/m 9,0 C 13,5 C 1,6 km/h (1 Bft)
29.10.2022 21:51 13,3 C 9,4 C 75 % 1020,3 hPa 0,0 l/m 0,0 km/h (0 Bft) S 184 0 min 0,0 UV-I 0 W/m 9,0 C 13,3 C 0,0 km/h (0 Bft)
29.10.2022 21:54 13,3 C 9,4 C 75 % 1020,1 hPa 0,0 l/m 0,0 km/h (0 Bft) S 184 0 min 0,0 UV-I 0 W/m 9,0 C 13,3 C 0,0 km/h (0 Bft)
29.10.2022 21:57 13,3 C 9,4 C 75 % 1020,2 hPa 0,0 l/m 0,2 km/h (0 Bft) S 183 0 min 0,0 UV-I 0 W/m 9,0 C 13,3 C 1,6 km/h (1 Bft)
29.10.2022 22:00 13,0 C 10,0 C 76 % 1020,1 hPa 0,0 l/m 2,5 km/h (1 Bft) O-SO 115 0 min 0,0 UV-I 0 W/m 8,9 C 13,0 C 4,8 km/h (1 Bft)
29.10.2022 22:03 13,1 C 10,0 C 76 % 1020,1 hPa 0,0 l/m 3,2 km/h (1 Bft) O 90 0 min 0,0 UV-I 0 W/m 9,0 C 13,1 C 6,4 km/h (2 Bft)
29.10.2022 22:06 13,5 C 10,6 C 76 % 1020,1 hPa 0,0 l/m 1,8 km/h (1 Bft) O 90 0 min 0,0 UV-I 0 W/m 9,4 C 13,5 C 3,2 km/h (1 Bft)
29.10.2022 22:09 13,8 C 10,6 C 75 % 1020,2 hPa 0,0 l/m 1,1 km/h (1 Bft) O-NO 76 0 min 0,0 UV-I 0 W/m 9,4 C 13,8 C 3,2 km/h (1 Bft)
29.10.2022 22:12 14,0 C 11,1 C 74 % 1020,2 hPa 0,0 l/m 4,4 km/h (1 Bft) NW 325 0 min 0,0 UV-I 0 W/m 9,4 C 14,0 C 6,4 km/h (2 Bft)
29.10.2022 22:15 14,1 C 11,1 C 73 % 1020,1 hPa 0,0 l/m 5,2 km/h (1 Bft) NW 311 0 min 0,0 UV-I 0 W/m 9,3 C 14,1 C 8,0 km/h (2 Bft)
29.10.2022 22:18 14,3 C 11,1 C 73 % 1020,1 hPa 0,0 l/m 4,4 km/h (1 Bft) NW 318 0 min 0,0 UV-I 0 W/m 9,5 C 14,3 C 6,4 km/h (2 Bft)
29.10.2022 22:21 13,5 C 10,6 C 73 % 1020,1 hPa 0,0 l/m 0,8 km/h (0 Bft) NW 318 0 min 0,0 UV-I 0 W/m 8,8 C 13,5 C 3,2 km/h (1 Bft)
29.10.2022 22:24 13,7 C 11,1 C 75 % 1020,1 hPa 0,0 l/m 0,4 km/h (0 Bft) NW 318 0 min 0,0 UV-I 0 W/m 9,3 C 13,7 C 1,6 km/h (1 Bft)
29.10.2022 22:27 14,1 C 11,1 C 74 % 1020,1 hPa 0,0 l/m 2,1 km/h (1 Bft) NW 311 0 min 0,0 UV-I 0 W/m 9,5 C 14,1 C 4,8 km/h (1 Bft)
29.10.2022 22:30 14,6 C 11,1 C 72 % 1020,1 hPa 0,0 l/m 1,4 km/h (1 Bft) NW 311 0 min 0,0 UV-I 0 W/m 9,6 C 14,6 C 4,8 km/h (1 Bft)
29.10.2022 22:33 14,3 C 11,1 C 73 % 1020,1 hPa 0,0 l/m 1,5 km/h (1 Bft) NW 311 0 min 0,0 UV-I 0 W/m 9,5 C 14,3 C 3,2 km/h (1 Bft)
29.10.2022 22:36 14,6 C 11,1 C 72 % 1020,2 hPa 0,0 l/m 1,5 km/h (1 Bft) NW 311 0 min 0,0 UV-I 0 W/m 9,6 C 14,6 C 3,2 km/h (1 Bft)
29.10.2022 22:39 14,3 C 11,1 C 73 % 1020,2 hPa 0,0 l/m 0,3 km/h (0 Bft) NW 311 0 min 0,0 UV-I 0 W/m 9,5 C 14,3 C 1,6 km/h (1 Bft)
29.10.2022 22:42 14,3 C 11,1 C 72 % 1020,2 hPa 0,0 l/m 0,1 km/h (0 Bft) NW 311 0 min 0,0 UV-I 0 W/m 9,3 C 14,3 C 1,6 km/h (1 Bft)
29.10.2022 22:45 14,2 C 11,1 C 73 % 1020,2 hPa 0,0 l/m 1,3 km/h (1 Bft) NW 311 0 min 0,0 UV-I 0 W/m 9,4 C 14,2 C 3,2 km/h (1 Bft)
29.10.2022 22:48 14,4 C 11,1 C 72 % 1020,2 hPa 0,0 l/m 1,0 km/h (0 Bft) NW 311 0 min 0,0 UV-I 0 W/m 9,4 C 14,4 C 3,2 km/h (1 Bft)
29.10.2022 22:51 14,8 C 11,1 C 71 % 1020,3 hPa 0,0 l/m 0,6 km/h (0 Bft) NW 311 0 min 0,0 UV-I 0 W/m 9,6 C 14,8 C 3,2 km/h (1 Bft)
29.10.2022 22:54 14,6 C 11,7 C 72 % 1020,2 hPa 0,0 l/m 3,0 km/h (1 Bft) N-NW 335 0 min 0,0 UV-I 0 W/m 9,6 C 14,6 C 6,4 km/h (2 Bft)
29.10.2022 22:57 15,0 C 11,7 C 70 % 1020,2 hPa 0,0 l/m 1,4 km/h (1 Bft) W-SW 248 0 min 0,0 UV-I 0 W/m 9,6 C 15,0 C 4,8 km/h (1 Bft)
29.10.2022 23:00 15,3 C 12,2 C 69 % 1020,2 hPa 0,0 l/m 1,7 km/h (1 Bft) W-SW 245 0 min 0,0 UV-I 0 W/m 9,6 C 15,3 C 4,8 km/h (1 Bft)
29.10.2022 23:03 15,4 C 12,2 C 69 % 1020,2 hPa 0,0 l/m 1,7 km/h (1 Bft) W-SW 245 0 min 0,0 UV-I 0 W/m 9,7 C 15,4 C 3,2 km/h (1 Bft)
29.10.2022 23:06 15,3 C 11,7 C 69 % 1020,1 hPa 0,0 l/m 2,3 km/h (1 Bft) W-SW 245 0 min 0,0 UV-I 0 W/m 9,6 C 15,3 C 3,2 km/h (1 Bft)
29.10.2022 23:09 15,4 C 12,2 C 69 % 1020,3 hPa 0,0 l/m 1,5 km/h (1 Bft) W-SW 245 0 min 0,0 UV-I 0 W/m 9,7 C 15,4 C 4,8 km/h (1 Bft)
29.10.2022 23:12 15,5 C 12,2 C 68 % 1020,3 hPa 0,0 l/m 0,7 km/h (0 Bft) W-SW 245 0 min 0,0 UV-I 0 W/m 9,6 C 15,5 C 1,6 km/h (1 Bft)
29.10.2022 23:15 15,6 C 12,2 C 68 % 1020,4 hPa 0,0 l/m 2,8 km/h (1 Bft) W-SW 241 0 min 0,0 UV-I 0 W/m 9,7 C 15,6 C 4,8 km/h (1 Bft)
29.10.2022 23:18 15,5 C 12,2 C 69 % 1020,4 hPa 0,0 l/m 3,0 km/h (1 Bft) S 190 0 min 0,0 UV-I 0 W/m 9,8 C 15,5 C 6,4 km/h (2 Bft)
29.10.2022 23:21 15,4 C 11,7 C 69 % 1020,3 hPa 0,0 l/m 2,9 km/h (1 Bft) S 189 0 min 0,0 UV-I 0 W/m 9,7 C 15,4 C 6,4 km/h (2 Bft)
29.10.2022 23:24 15,4 C 12,2 C 69 % 1020,3 hPa 0,0 l/m 1,3 km/h (1 Bft) S 189 0 min 0,0 UV-I 0 W/m 9,7 C 15,4 C 4,8 km/h (1 Bft)
29.10.2022 23:27 15,6 C 12,8 C 68 % 1020,2 hPa 0,0 l/m 0,0 km/h (0 Bft) S 189 0 min 0,0 UV-I 0 W/m 9,7 C 15,6 C 1,6 km/h (1 Bft)
29.10.2022 23:30 15,5 C 12,8 C 68 % 1020,3 hPa 0,0 l/m 1,8 km/h (1 Bft) S 189 0 min 0,0 UV-I 0 W/m 9,6 C 15,5 C 3,2 km/h (1 Bft)
29.10.2022 23:33 15,3 C 12,2 C 69 % 1020,3 hPa 0,0 l/m 3,1 km/h (1 Bft) S 190 0 min 0,0 UV-I 0 W/m 9,6 C 15,3 C 4,8 km/h (1 Bft)
29.10.2022 23:36 15,2 C 12,2 C 70 % 1020,2 hPa 0,0 l/m 2,9 km/h (1 Bft) S 190 0 min 0,0 UV-I 0 W/m 9,8 C 15,2 C 4,8 km/h (1 Bft)
29.10.2022 23:39 15,1 C 12,2 C 70 % 1020,3 hPa 0,0 l/m 2,0 km/h (1 Bft) S 190 0 min 0,0 UV-I 0 W/m 9,7 C 15,1 C 3,2 km/h (1 Bft)
29.10.2022 23:42 15,0 C 12,2 C 70 % 1020,2 hPa 0,0 l/m 0,1 km/h (0 Bft) S 190 0 min 0,0 UV-I 0 W/m 9,6 C 15,0 C 1,6 km/h (1 Bft)
29.10.2022 23:45 15,1 C 12,2 C 70 % 1020,2 hPa 0,0 l/m 1,1 km/h (1 Bft) S 186 0 min 0,0 UV-I 0 W/m 9,7 C 15,1 C 4,8 km/h (1 Bft)
29.10.2022 23:48 15,1 C 12,2 C 70 % 1020,2 hPa 0,0 l/m 0,0 km/h (0 Bft) S 186 0 min 0,0 UV-I 0 W/m 9,7 C 15,1 C 0,0 km/h (0 Bft)
29.10.2022 23:51 14,8 C 12,2 C 71 % 1020,3 hPa 0,0 l/m 0,4 km/h (0 Bft) S 186 0 min 0,0 UV-I 0 W/m 9,6 C 14,8 C 1,6 km/h (1 Bft)
29.10.2022 23:54 14,8 C 12,2 C 71 % 1020,3 hPa 0,0 l/m 1,0 km/h (0 Bft) S 186 0 min 0,0 UV-I 0 W/m 9,6 C 14,8 C 3,2 km/h (1 Bft)
29.10.2022 23:57 14,7 C 11,7 C 72 % 1020,3 hPa 0,0 l/m 1,9 km/h (1 Bft) S 186 0 min 0,0 UV-I 0 W/m 9,7 C 14,7 C 3,2 km/h (1 Bft)
_ Min-Zeit 07:24 03:27 15:36 19:00 - 00:03 - - - - - 22:21 07:30 00:03
Minimum _ 10,1 C 7,8 C 62 % 1019,9 hPa - 0,0 km/h (0 Bft) - - - - - 8,8 C 10,1 C 0,0 km/h (0 Bft)
_ Max-Zeit 13:33 12:51 03:39 00:36 14:54 15:39 - - 12:42 12:48 12:51 13:06 13:33 15:48
Maximum _ 19,1 C 25,0 C 93 % 1023,9 hPa 0,2 l/m 13,2 km/h
S-SO (3 Bft)
- - 3 min 2,0 UV-I 412 W/m 14,2 C 19,1 C 20,9 km/h
SO (4 Bft)
Durchschnitt _ 14,6 C 13,4 C 79 % 1021,7 hPa #0,2 l/m 3,7 km/h (1 Bft) S-SO - #18 min. 1,1 UV-I 126 W/m 10,9 C 14,4 C 6,9 km/h (2 Bft)